Time,TemperatureF,DewpointF,PressureIn,WindDirection,WindDirectionDegrees,WindSpeedMPH,WindSpeedGustMPH,Humidity,HourlyPrecipIn,Conditions,Clouds,dailyrainin,SoftwareType,DateUTC
2013-04-28 00:00:00,70.5,23.6,25.58,NNE,19,0.0,4.5,17,0.00,,,0.00,VWS V14.00,2013-04-28 05:00:00,
2013-04-28 00:02:00,70.3,23.5,25.58,NE,53,0.0,0.0,17,0.00,,,0.00,VWS V14.00,2013-04-28 05:02:00,
2013-04-28 00:03:00,70.3,23.5,25.58,NE,53,0.0,0.0,17,0.00,,,0.00,VWS V14.00,2013-04-28 05:03:00,
2013-04-28 00:04:00,70.3,23.5,25.58,NE,53,0.0,0.0,17,0.00,,,0.00,VWS V14.00,2013-04-28 05:04:00,
2013-04-28 00:05:00,70.3,23.5,25.58,NE,52,0.0,0.0,17,0.00,,,0.00,VWS V14.00,2013-04-28 05:05:00,
2013-04-28 00:08:00,70.3,23.5,25.58,NNE,24,0.0,4.0,17,0.00,,,0.00,VWS V14.00,2013-04-28 05:08:00,
2013-04-28 00:10:00,70.3,23.5,25.58,NNE,25,0.0,4.0,17,0.00,,,0.00,VWS V14.00,2013-04-28 05:10:00,
2013-04-28 00:12:00,70.5,23.6,25.58,ENE,63,4.9,4.9,17,0.00,,,0.00,VWS V14.00,2013-04-28 05:12:00,
2013-04-28 00:14:00,70.5,23.6,25.58,ENE,63,0.0,4.9,17,0.00,,,0.00,VWS V14.00,2013-04-28 05:14:00,
2013-04-28 00:15:00,70.5,23.6,25.58,NNE,27,3.6,4.9,17,0.00,,,0.00,VWS V14.00,2013-04-28 05:15:00,
2013-04-28 00:16:00,70.5,23.6,25.58,NNE,30,3.1,5.4,17,0.00,,,0.00,VWS V14.00,2013-04-28 05:16:00,
2013-04-28 00:17:00,70.5,23.6,25.58,NE,39,3.6,3.6,17,0.00,,,0.00,VWS V14.00,2013-04-28 05:17:00,
2013-04-28 00:19:00,70.3,23.5,25.58,NE,38,2.2,3.6,17,0.00,,,0.00,VWS V14.00,2013-04-28 05:19:00,
2013-04-28 00:21:00,70.3,23.5,25.58,NE,42,3.1,4.0,17,0.00,,,0.00,VWS V14.00,2013-04-28 05:21:00,
2013-04-28 00:22:00,70.5,23.6,25.58,NNE,23,3.1,6.3,17,0.00,,,0.00,VWS V14.00,2013-04-28 05:22:00,
2013-04-28 00:23:00,70.3,23.5,25.58,NNE,32,3.1,6.3,17,0.00,,,0.00,VWS V14.00,2013-04-28 05:23:00,
2013-04-28 00:24:00,70.3,23.5,25.58,NNE,28,2.7,6.3,17,0.00,,,0.00,VWS V14.00,2013-04-28 05:24:00,
2013-04-28 00:26:00,70.2,23.4,25.58,NNE,29,0.0,6.3,17,0.00,,,0.00,VWS V14.00,2013-04-28 05:26:00,
2013-04-28 00:29:00,70.3,23.5,25.58,NNE,27,2.7,6.3,17,0.00,,,0.00,VWS V14.00,2013-04-28 05:29:00,
2013-04-28 00:30:00,70.3,23.5,25.58,NE,44,2.2,6.3,17,0.00,,,0.00,VWS V14.00,2013-04-28 05:30:00,
2013-04-28 00:31:00,70.3,23.5,25.58,NE,41,0.0,6.3,17,0.00,,,0.00,VWS V14.00,2013-04-28 05:31:00,
2013-04-28 00:33:00,70.3,23.5,25.58,NE,42,0.0,2.7,17,0.00,,,0.00,VWS V14.00,2013-04-28 05:33:00,
2013-04-28 00:34:00,70.3,23.5,25.55,NE,42,0.0,2.7,17,0.00,,,0.00,VWS V14.00,2013-04-28 05:34:00,
2013-04-28 00:35:00,70.3,23.5,25.55,NE,45,0.0,2.7,17,0.00,,,0.00,VWS V14.00,2013-04-28 05:35:00,
2013-04-28 00:36:00,70.3,23.5,25.55,NE,46,2.2,2.7,17,0.00,,,0.00,VWS V14.00,2013-04-28 05:36:00,
2013-04-28 00:39:00,70.3,23.5,25.55,NE,46,0.0,2.7,17,0.00,,,0.00,VWS V14.00,2013-04-28 05:39:00,
2013-04-28 00:41:00,70.3,23.5,25.55,NE,45,0.0,2.7,17,0.00,,,0.00,VWS V14.00,2013-04-28 05:41:00,
2013-04-28 00:42:00,70.2,23.4,25.55,NE,44,2.7,3.1,17,0.00,,,0.00,VWS V14.00,2013-04-28 05:42:00,
2013-04-28 00:44:00,70.2,23.4,25.55,NE,43,2.2,3.1,17,0.00,,,0.00,VWS V14.00,2013-04-28 05:44:00,
2013-04-28 00:46:00,70.2,23.4,25.55,NE,43,0.0,3.1,17,0.00,,,0.00,VWS V14.00,2013-04-28 05:46:00,
2013-04-28 00:47:00,70.2,23.4,25.55,NE,43,0.0,3.1,17,0.00,,,0.00,VWS V14.00,2013-04-28 05:47:00,
2013-04-28 00:48:00,70.2,23.4,25.55,NE,43,0.0,0.0,17,0.00,,,0.00,VWS V14.00,2013-04-28 05:48:00,
2013-04-28 00:50:00,70.2,23.4,25.55,NE,43,0.0,3.1,17,0.00,,,0.00,VWS V14.00,2013-04-28 05:50:00,
2013-04-28 00:52:00,70.2,23.4,25.55,NE,43,0.0,3.1,17,0.00,,,0.00,VWS V14.00,2013-04-28 05:52:00,
2013-04-28 00:53:00,70.0,23.2,25.55,NE,43,0.0,3.1,17,0.00,,,0.00,VWS V14.00,2013-04-28 05:53:00,
2013-04-28 00:54:00,70.0,23.2,25.55,NE,43,0.0,3.1,17,0.00,,,0.00,VWS V14.00,2013-04-28 05:54:00,
2013-04-28 00:57:00,70.0,23.2,25.55,NE,43,0.0,3.1,17,0.00,,,0.00,VWS V14.00,2013-04-28 05:57:00,
2013-04-28 00:58:00,70.0,23.2,25.55,NE,43,0.0,3.1,17,0.00,,,0.00,VWS V14.00,2013-04-28 05:58:00,
2013-04-28 00:59:00,70.0,23.2,25.55,NE,43,0.0,3.1,17,0.00,,,0.00,VWS V14.00,2013-04-28 05:59:00,
2013-04-28 01:00:00,70.0,23.2,25.55,NE,43,0.0,3.1,17,0.00,,,0.00,VWS V14.00,2013-04-28 06:00:00,
2013-04-28 01:03:00,70.0,23.2,25.55,NE,43,0.0,0.0,17,0.00,,,0.00,VWS V14.00,2013-04-28 06:03:00,
2013-04-28 01:04:00,70.0,23.2,25.55,NE,43,0.0,0.0,17,0.00,,,0.00,VWS V14.00,2013-04-28 06:04:00,
2013-04-28 01:05:00,70.0,23.2,25.55,NE,43,0.0,0.0,17,0.00,,,0.00,VWS V14.00,2013-04-28 06:05:00,
2013-04-28 01:06:00,70.0,23.2,25.55,NE,43,2.7,2.7,17,0.00,,,0.00,VWS V14.00,2013-04-28 06:06:00,
2013-04-28 01:08:00,70.0,23.2,25.55,NE,43,0.0,2.7,17,0.00,,,0.00,VWS V14.00,2013-04-28 06:08:00,
2013-04-28 01:09:00,70.0,23.2,25.55,NE,43,3.1,3.1,17,0.00,,,0.00,VWS V14.00,2013-04-28 06:09:00,
2013-04-28 01:12:00,70.0,23.2,25.55,NE,44,2.7,3.6,17,0.00,,,0.00,VWS V14.00,2013-04-28 06:12:00,
2013-04-28 01:13:00,70.2,23.4,25.55,ENE,73,4.9,4.9,17,0.00,,,0.00,VWS V14.00,2013-04-28 06:13:00,
2013-04-28 01:14:00,70.2,23.4,25.55,ENE,74,4.0,4.9,17,0.00,,,0.00,VWS V14.00,2013-04-28 06:14:00,
2013-04-28 01:16:00,70.2,23.4,25.55,ENE,76,0.0,4.9,17,0.00,,,0.00,VWS V14.00,2013-04-28 06:16:00,
2013-04-28 01:18:00,70.2,23.4,25.55,ENE,74,0.0,0.0,17,0.00,,,0.00,VWS V14.00,2013-04-28 06:18:00,
2013-04-28 01:19:00,70.2,23.4,25.55,ENE,74,0.0,0.0,17,0.00,,,0.00,VWS V14.00,2013-04-28 06:19:00,
2013-04-28 01:20:00,70.2,23.4,25.55,ENE,74,0.0,0.0,17,0.00,,,0.00,VWS V14.00,2013-04-28 06:20:00,
2013-04-28 01:21:00,70.2,23.4,25.55,ENE,74,0.0,0.0,17,0.00,,,0.00,VWS V14.00,2013-04-28 06:21:00,
2013-04-28 01:24:00,70.2,23.4,25.55,NE,50,0.0,0.0,17,0.00,,,0.00,VWS V14.00,2013-04-28 06:24:00,
2013-04-28 01:26:00,70.2,23.4,25.55,ENE,73,4.0,5.4,17,0.00,,,0.00,VWS V14.00,2013-04-28 06:26:00,
2013-04-28 01:27:00,70.2,23.4,25.55,ESE,105,0.0,5.4,17,0.00,,,0.00,VWS V14.00,2013-04-28 06:27:00,
2013-04-28 01:29:00,70.2,23.4,25.55,ESE,105,0.0,5.4,17,0.00,,,0.00,VWS V14.00,2013-04-28 06:29:00,
2013-04-28 01:31:00,70.2,23.4,25.55,ESE,105,0.0,5.4,17,0.00,,,0.00,VWS V14.00,2013-04-28 06:31:00,
2013-04-28 01:32:00,70.2,23.4,25.55,ESE,105,0.0,5.4,17,0.00,,,0.00,VWS V14.00,2013-04-28 06:32:00,
2013-04-28 01:35:00,70.0,23.2,25.55,ESE,103,0.0,0.0,17,0.00,,,0.00,VWS V14.00,2013-04-28 06:35:00,
2013-04-28 01:36:00,70.2,23.4,25.55,ESE,103,0.0,0.0,17,0.00,,,0.00,VWS V14.00,2013-04-28 06:36:00,
2013-04-28 01:37:00,70.2,23.4,25.55,East,88,0.0,3.6,17,0.00,,,0.00,VWS V14.00,2013-04-28 06:37:00,
2013-04-28 01:38:00,70.2,23.4,25.55,East,88,0.0,3.6,17,0.00,,,0.00,VWS V14.00,2013-04-28 06:38:00,
2013-04-28 01:40:00,70.2,23.4,25.55,East,88,0.0,3.6,17,0.00,,,0.00,VWS V14.00,2013-04-28 06:40:00,
2013-04-28 01:42:00,70.0,23.2,25.55,East,88,0.0,3.6,17,0.00,,,0.00,VWS V14.00,2013-04-28 06:42:00,
2013-04-28 01:43:00,70.2,23.4,25.55,East,87,2.2,3.6,17,0.00,,,0.00,VWS V14.00,2013-04-28 06:43:00,
2013-04-28 01:46:00,70.0,24.6,25.55,NE,38,0.0,3.6,18,0.00,,,0.00,VWS V14.00,2013-04-28 06:46:00,
2013-04-28 01:47:00,70.0,24.6,25.55,NE,41,0.0,0.0,18,0.00,,,0.00,VWS V14.00,2013-04-28 06:47:00,
2013-04-28 01:48:00,70.0,24.6,25.55,NE,41,0.0,0.0,18,0.00,,,0.00,VWS V14.00,2013-04-28 06:48:00,
2013-04-28 01:49:00,70.0,24.6,25.52,NE,41,0.0,0.0,18,0.00,,,0.00,VWS V14.00,2013-04-28 06:49:00,
2013-04-28 01:53:00,69.4,25.4,25.52,NE,41,0.0,0.0,19,0.00,,,0.00,VWS V14.00,2013-04-28 06:53:00,
2013-04-28 01:54:00,69.4,25.4,25.52,NE,41,0.0,0.0,19,0.00,,,0.00,VWS V14.00,2013-04-28 06:54:00,
2013-04-28 01:55:00,69.4,25.4,25.52,NE,41,0.0,0.0,19,0.00,,,0.00,VWS V14.00,2013-04-28 06:55:00,
2013-04-28 01:58:00,69.4,25.4,25.52,East,87,0.0,0.0,19,0.00,,,0.00,VWS V14.00,2013-04-28 06:58:00,
2013-04-28 01:59:00,69.4,25.4,25.52,East,87,0.0,0.0,19,0.00,,,0.00,VWS V14.00,2013-04-28 06:59:00,
2013-04-28 02:01:00,69.4,25.4,25.52,East,88,0.0,0.0,19,0.00,,,0.00,VWS V14.00,2013-04-28 07:01:00,
2013-04-28 02:02:00,69.4,25.4,25.52,East,88,0.0,0.0,19,0.00,,,0.00,VWS V14.00,2013-04-28 07:02:00,
2013-04-28 02:03:00,69.4,25.4,25.52,East,88,0.0,0.0,19,0.00,,,0.00,VWS V14.00,2013-04-28 07:03:00,
2013-04-28 02:05:00,69.4,25.4,25.55,East,89,0.0,0.0,19,0.00,,,0.00,VWS V14.00,2013-04-28 07:05:00,
2013-04-28 02:06:00,69.4,25.4,25.55,East,86,0.0,0.0,19,0.00,,,0.00,VWS V14.00,2013-04-28 07:06:00,
2013-04-28 02:09:00,69.4,25.4,25.55,East,86,0.0,0.0,19,0.00,,,0.00,VWS V14.00,2013-04-28 07:09:00,
2013-04-28 02:11:00,69.4,25.4,25.55,East,86,0.0,0.0,19,0.00,,,0.00,VWS V14.00,2013-04-28 07:11:00,
2013-04-28 02:12:00,69.4,25.4,25.55,East,86,0.0,0.0,19,0.00,,,0.00,VWS V14.00,2013-04-28 07:12:00,
2013-04-28 02:14:00,69.4,25.4,25.55,SSE,154,0.0,0.0,19,0.00,,,0.00,VWS V14.00,2013-04-28 07:14:00,
2013-04-28 02:16:00,69.4,25.4,25.55,SSE,154,0.0,0.0,19,0.00,,,0.00,VWS V14.00,2013-04-28 07:16:00,
2013-04-28 02:17:00,69.4,25.4,25.55,SSE,154,0.0,0.0,19,0.00,,,0.00,VWS V14.00,2013-04-28 07:17:00,
2013-04-28 02:19:00,69.4,25.4,25.52,SSE,154,0.0,0.0,19,0.00,,,0.00,VWS V14.00,2013-04-28 07:19:00,
2013-04-28 02:22:00,69.4,25.4,25.52,SSE,154,0.0,0.0,19,0.00,,,0.00,VWS V14.00,2013-04-28 07:22:00,
2013-04-28 02:23:00,69.4,25.4,25.52,SSE,154,0.0,0.0,19,0.00,,,0.00,VWS V14.00,2013-04-28 07:23:00,
2013-04-28 02:25:00,69.4,25.4,25.52,East,90,0.0,0.0,19,0.00,,,0.00,VWS V14.00,2013-04-28 07:25:00,
2013-04-28 02:28:00,69.4,25.4,25.52,NE,49,0.0,0.0,19,0.00,,,0.00,VWS V14.00,2013-04-28 07:28:00,
2013-04-28 02:30:00,69.4,25.4,25.52,NE,51,0.0,2.2,19,0.00,,,0.00,VWS V14.00,2013-04-28 07:30:00,
2013-04-28 02:33:00,69.4,25.4,25.52,NE,51,0.0,0.0,19,0.00,,,0.00,VWS V14.00,2013-04-28 07:33:00,
2013-04-28 02:34:00,69.4,25.4,25.52,NE,51,0.0,0.0,19,0.00,,,0.00,VWS V14.00,2013-04-28 07:34:00,
2013-04-28 02:35:00,69.4,25.4,25.52,NE,51,0.0,0.0,19,0.00,,,0.00,VWS V14.00,2013-04-28 07:35:00,
2013-04-28 02:36:00,69.4,25.4,25.52,NE,51,0.0,0.0,19,0.00,,,0.00,VWS V14.00,2013-04-28 07:36:00,
2013-04-28 02:39:00,69.4,25.4,25.52,South,183,0.0,3.1,19,0.00,,,0.00,VWS V14.00,2013-04-28 07:39:00,
2013-04-28 02:40:00,69.4,25.4,25.52,SSW,205,3.1,4.0,19,0.00,,,0.00,VWS V14.00,2013-04-28 07:40:00,
2013-04-28 02:41:00,69.4,25.4,25.52,SSW,205,0.0,4.0,19,0.00,,,0.00,VWS V14.00,2013-04-28 07:41:00,
2013-04-28 02:44:00,69.4,25.4,25.52,South,188,3.6,4.0,19,0.00,,,0.00,VWS V14.00,2013-04-28 07:44:00,
2013-04-28 02:45:00,69.4,25.4,25.52,South,188,2.2,4.0,19,0.00,,,0.00,VWS V14.00,2013-04-28 07:45:00,
2013-04-28 02:46:00,69.4,25.4,25.52,South,173,3.1,4.0,19,0.00,,,0.00,VWS V14.00,2013-04-28 07:46:00,
2013-04-28 02:47:00,69.4,25.4,25.52,South,172,2.7,4.0,19,0.00,,,0.00,VWS V14.00,2013-04-28 07:47:00,
2013-04-28 02:50:00,69.4,25.4,25.52,South,172,2.2,3.1,19,0.00,,,0.00,VWS V14.00,2013-04-28 07:50:00,
2013-04-28 02:51:00,69.4,25.4,25.52,South,172,0.0,3.1,19,0.00,,,0.00,VWS V14.00,2013-04-28 07:51:00,
2013-04-28 02:52:00,69.4,25.4,25.52,South,172,2.2,3.6,19,0.00,,,0.00,VWS V14.00,2013-04-28 07:52:00,
2013-04-28 02:53:00,69.4,25.4,25.52,South,172,2.7,3.6,19,0.00,,,0.00,VWS V14.00,2013-04-28 07:53:00,
2013-04-28 02:54:00,69.4,25.4,25.52,SSE,167,4.9,4.9,19,0.00,,,0.00,VWS V14.00,2013-04-28 07:54:00,
2013-04-28 02:56:00,69.4,25.4,25.52,South,177,0.0,4.9,19,0.00,,,0.00,VWS V14.00,2013-04-28 07:56:00,
2013-04-28 02:57:00,69.4,25.4,25.52,South,177,0.0,4.9,19,0.00,,,0.00,VWS V14.00,2013-04-28 07:57:00,
2013-04-28 02:58:00,69.4,25.4,25.52,South,183,2.7,4.9,19,0.00,,,0.00,VWS V14.00,2013-04-28 07:58:00,
2013-04-28 03:01:00,69.4,25.4,25.52,South,182,0.0,4.9,19,0.00,,,0.00,VWS V14.00,2013-04-28 08:01:00,
2013-04-28 03:02:00,69.4,25.4,25.52,South,182,0.0,0.0,19,0.00,,,0.00,VWS V14.00,2013-04-28 08:02:00,
2013-04-28 03:03:00,69.4,25.4,25.52,South,182,0.0,0.0,19,0.00,,,0.00,VWS V14.00,2013-04-28 08:03:00,
2013-04-28 03:06:00,69.4,25.4,25.49,South,182,0.0,0.0,19,0.00,,,0.00,VWS V14.00,2013-04-28 08:06:00,
2013-04-28 03:08:00,69.4,25.4,25.49,South,182,0.0,0.0,19,0.00,,,0.00,VWS V14.00,2013-04-28 08:08:00,
2013-04-28 03:09:00,69.4,25.4,25.49,South,180,0.0,0.0,19,0.00,,,0.00,VWS V14.00,2013-04-28 08:09:00,
2013-04-28 03:10:00,69.4,25.4,25.49,South,180,0.0,0.0,19,0.00,,,0.00,VWS V14.00,2013-04-28 08:10:00,
2013-04-28 03:11:00,69.4,25.4,25.49,South,180,0.0,0.0,19,0.00,,,0.00,VWS V14.00,2013-04-28 08:11:00,
2013-04-28 03:14:00,69.4,25.4,25.49,South,180,0.0,0.0,19,0.00,,,0.00,VWS V14.00,2013-04-28 08:14:00,
2013-04-28 03:15:00,68.4,34.0,25.49,South,180,0.0,0.0,28,0.00,,,0.00,VWS V14.00,2013-04-28 08:15:00,
2013-04-28 03:16:00,68.4,34.0,25.49,South,180,0.0,0.0,28,0.00,,,0.00,VWS V14.00,2013-04-28 08:16:00,
2013-04-28 03:17:00,68.4,34.0,25.49,South,180,0.0,0.0,28,0.00,,,0.00,VWS V14.00,2013-04-28 08:17:00,
2013-04-28 03:19:00,68.4,34.0,25.49,South,180,0.0,2.2,28,0.00,,,0.00,VWS V14.00,2013-04-28 08:19:00,
2013-04-28 03:20:00,68.4,34.0,25.49,South,180,0.0,2.2,28,0.00,,,0.00,VWS V14.00,2013-04-28 08:20:00,
2013-04-28 03:21:00,68.4,34.0,25.49,South,177,2.2,2.2,28,0.00,,,0.00,VWS V14.00,2013-04-28 08:21:00,
2013-04-28 03:23:00,68.4,34.0,25.49,South,177,0.0,2.2,28,0.00,,,0.00,VWS V14.00,2013-04-28 08:23:00,
2013-04-28 03:25:00,68.4,34.0,25.49,South,177,0.0,2.2,28,0.00,,,0.00,VWS V14.00,2013-04-28 08:25:00,
2013-04-28 03:26:00,68.4,34.0,25.49,South,177,0.0,2.2,28,0.00,,,0.00,VWS V14.00,2013-04-28 08:26:00,
2013-04-28 03:27:00,68.4,34.0,25.49,South,177,0.0,2.2,28,0.00,,,0.00,VWS V14.00,2013-04-28 08:27:00,
2013-04-28 03:28:00,68.4,34.0,25.49,South,177,0.0,2.7,28,0.00,,,0.00,VWS V14.00,2013-04-28 08:28:00,
2013-04-28 03:29:00,68.4,34.0,25.49,South,178,4.9,4.9,28,0.00,,,0.00,VWS V14.00,2013-04-28 08:29:00,
2013-04-28 03:30:00,68.4,34.0,25.49,SSE,167,0.0,5.4,28,0.00,,,0.00,VWS V14.00,2013-04-28 08:30:00,
2013-04-28 03:32:00,68.4,34.0,25.49,SSE,168,0.0,5.4,28,0.00,,,0.00,VWS V14.00,2013-04-28 08:32:00,
2013-04-28 03:33:00,68.4,34.0,25.49,SSE,167,0.0,2.2,28,0.00,,,0.00,VWS V14.00,2013-04-28 08:33:00,
2013-04-28 03:34:00,68.4,34.0,25.52,SSE,167,0.0,2.2,28,0.00,,,0.00,VWS V14.00,2013-04-28 08:34:00,
2013-04-28 03:35:00,68.4,34.0,25.52,SSE,167,0.0,2.2,28,0.00,,,0.00,VWS V14.00,2013-04-28 08:35:00,
2013-04-28 03:37:00,68.4,34.0,25.52,SSW,197,0.0,4.0,28,0.00,,,0.00,VWS V14.00,2013-04-28 08:37:00,
2013-04-28 03:39:00,68.4,34.0,25.52,SSW,196,0.0,4.0,28,0.00,,,0.00,VWS V14.00,2013-04-28 08:39:00,
2013-04-28 03:41:00,68.4,34.0,25.52,South,170,0.0,4.0,28,0.00,,,0.00,VWS V14.00,2013-04-28 08:41:00,
2013-04-28 03:43:00,68.4,34.0,25.52,South,170,0.0,4.0,28,0.00,,,0.00,VWS V14.00,2013-04-28 08:43:00,
2013-04-28 03:44:00,68.4,34.0,25.52,South,170,0.0,4.0,28,0.00,,,0.00,VWS V14.00,2013-04-28 08:44:00,
2013-04-28 03:45:00,68.4,34.0,25.52,SSE,153,4.9,4.9,28,0.00,,,0.00,VWS V14.00,2013-04-28 08:45:00,
2013-04-28 03:46:00,68.4,34.0,25.52,SSE,154,4.5,4.9,28,0.00,,,0.00,VWS V14.00,2013-04-28 08:46:00,
2013-04-28 03:47:00,68.4,34.0,25.52,SSE,154,3.6,4.9,28,0.00,,,0.00,VWS V14.00,2013-04-28 08:47:00,
2013-04-28 03:50:00,68.4,34.0,25.49,SSW,212,3.1,3.1,28,0.00,,,0.00,VWS V14.00,2013-04-28 08:50:00,
2013-04-28 03:51:00,68.4,34.0,25.49,SSW,198,0.0,3.1,28,0.00,,,0.00,VWS V14.00,2013-04-28 08:51:00,
2013-04-28 03:52:00,68.4,34.0,25.49,SSW,198,0.0,3.1,28,0.00,,,0.00,VWS V14.00,2013-04-28 08:52:00,
2013-04-28 03:53:00,68.4,34.0,25.49,SSW,198,0.0,3.1,28,0.00,,,0.00,VWS V14.00,2013-04-28 08:53:00,
2013-04-28 03:55:00,68.4,34.0,25.49,SSW,198,0.0,3.1,28,0.00,,,0.00,VWS V14.00,2013-04-28 08:55:00,
2013-04-28 03:56:00,68.4,34.0,25.49,SSW,198,0.0,3.1,28,0.00,,,0.00,VWS V14.00,2013-04-28 08:56:00,
2013-04-28 03:58:00,68.4,34.0,25.49,SSW,198,0.0,3.1,28,0.00,,,0.00,VWS V14.00,2013-04-28 08:58:00,
2013-04-28 04:00:00,68.4,34.0,25.49,SSW,198,0.0,3.1,28,0.00,,,0.00,VWS V14.00,2013-04-28 09:00:00,
2013-04-28 04:01:00,68.4,34.0,25.49,SSW,198,0.0,3.1,28,0.00,,,0.00,VWS V14.00,2013-04-28 09:01:00,
2013-04-28 04:02:00,68.4,34.0,25.49,SSW,198,0.0,3.1,28,0.00,,,0.00,VWS V14.00,2013-04-28 09:02:00,
2013-04-28 04:03:00,68.4,34.0,25.49,SSW,198,0.0,0.0,28,0.00,,,0.00,VWS V14.00,2013-04-28 09:03:00,
2013-04-28 04:06:00,68.4,34.0,25.49,SSW,198,0.0,0.0,28,0.00,,,0.00,VWS V14.00,2013-04-28 09:06:00,
2013-04-28 04:07:00,68.4,34.0,25.49,SSW,198,0.0,0.0,28,0.00,,,0.00,VWS V14.00,2013-04-28 09:07:00,
2013-04-28 04:09:00,68.4,34.0,25.49,SSW,198,0.0,0.0,28,0.00,,,0.00,VWS V14.00,2013-04-28 09:09:00,
2013-04-28 04:11:00,68.4,34.0,25.49,SSW,198,0.0,0.0,28,0.00,,,0.00,VWS V14.00,2013-04-28 09:11:00,
2013-04-28 04:12:00,68.4,34.0,25.49,SSW,198,0.0,0.0,28,0.00,,,0.00,VWS V14.00,2013-04-28 09:12:00,
2013-04-28 04:13:00,68.4,34.0,25.49,SSW,198,0.0,0.0,28,0.00,,,0.00,VWS V14.00,2013-04-28 09:13:00,
2013-04-28 04:14:00,68.4,34.0,25.49,SSW,198,0.0,0.0,28,0.00,,,0.00,VWS V14.00,2013-04-28 09:14:00,
2013-04-28 04:17:00,68.4,34.0,25.49,SSW,198,0.0,0.0,28,0.00,,,0.00,VWS V14.00,2013-04-28 09:17:00,
2013-04-28 04:18:00,68.4,34.0,25.49,SSW,198,0.0,0.0,28,0.00,,,0.00,VWS V14.00,2013-04-28 09:18:00,
2013-04-28 04:19:00,68.4,34.0,25.49,SSW,198,0.0,0.0,28,0.00,,,0.00,VWS V14.00,2013-04-28 09:19:00,
2013-04-28 04:23:00,68.4,34.0,25.49,SSW,198,0.0,0.0,28,0.00,,,0.00,VWS V14.00,2013-04-28 09:23:00,
2013-04-28 04:24:00,68.4,34.0,25.49,South,190,0.0,3.6,28,0.00,,,0.00,VWS V14.00,2013-04-28 09:24:00,
2013-04-28 04:26:00,68.4,34.0,25.49,South,190,0.0,3.6,28,0.00,,,0.00,VWS V14.00,2013-04-28 09:26:00,
2013-04-28 04:28:00,68.4,34.0,25.49,South,190,0.0,3.6,28,0.00,,,0.00,VWS V14.00,2013-04-28 09:28:00,
2013-04-28 04:29:00,68.4,34.0,25.49,South,191,4.0,4.0,28,0.00,,,0.00,VWS V14.00,2013-04-28 09:29:00,
2013-04-28 04:31:00,68.4,34.0,25.49,South,191,3.6,4.0,28,0.00,,,0.00,VWS V14.00,2013-04-28 09:31:00,
2013-04-28 04:33:00,68.4,34.0,25.49,South,191,0.0,0.0,28,0.00,,,0.00,VWS V14.00,2013-04-28 09:33:00,
2013-04-28 04:34:00,68.4,34.0,25.49,South,191,0.0,0.0,28,0.00,,,0.00,VWS V14.00,2013-04-28 09:34:00,
2013-04-28 04:35:00,68.4,34.0,25.49,South,191,0.0,0.0,28,0.00,,,0.00,VWS V14.00,2013-04-28 09:35:00,
2013-04-28 04:38:00,68.4,34.0,25.49,South,191,0.0,0.0,28,0.00,,,0.00,VWS V14.00,2013-04-28 09:38:00,
2013-04-28 04:39:00,68.4,34.0,25.49,South,191,0.0,0.0,28,0.00,,,0.00,VWS V14.00,2013-04-28 09:39:00,
2013-04-28 04:40:00,68.4,34.0,25.49,South,191,0.0,0.0,28,0.00,,,0.00,VWS V14.00,2013-04-28 09:40:00,
2013-04-28 04:44:00,68.4,34.0,25.49,South,190,0.0,2.7,28,0.00,,,0.00,VWS V14.00,2013-04-28 09:44:00,
2013-04-28 04:46:00,68.4,34.0,25.49,South,190,3.6,3.6,28,0.00,,,0.00,VWS V14.00,2013-04-28 09:46:00,
2013-04-28 04:47:00,68.4,34.0,25.49,South,190,2.7,3.6,28,0.00,,,0.00,VWS V14.00,2013-04-28 09:47:00,
2013-04-28 04:49:00,68.4,34.0,25.49,South,190,0.0,3.1,28,0.00,,,0.00,VWS V14.00,2013-04-28 09:49:00,
2013-04-28 04:51:00,68.4,34.0,25.49,South,190,0.0,3.1,28,0.00,,,0.00,VWS V14.00,2013-04-28 09:51:00,
2013-04-28 04:53:00,68.4,34.0,25.49,South,190,2.2,4.0,28,0.00,,,0.00,VWS V14.00,2013-04-28 09:53:00,
2013-04-28 04:54:00,68.4,34.0,25.49,South,190,0.0,4.0,28,0.00,,,0.00,VWS V14.00,2013-04-28 09:54:00,
2013-04-28 04:55:00,68.4,34.0,25.49,South,190,3.1,4.0,28,0.00,,,0.00,VWS V14.00,2013-04-28 09:55:00,
2013-04-28 04:56:00,68.4,34.0,25.49,South,190,2.7,4.0,28,0.00,,,0.00,VWS V14.00,2013-04-28 09:56:00,
2013-04-28 04:57:00,68.4,34.0,25.49,South,190,3.1,4.0,28,0.00,,,0.00,VWS V14.00,2013-04-28 09:57:00,
2013-04-28 04:59:00,68.4,34.0,25.49,South,190,2.7,4.0,28,0.00,,,0.00,VWS V14.00,2013-04-28 09:59:00,
2013-04-28 05:00:00,68.4,34.0,25.49,South,190,2.7,4.0,28,0.00,,,0.00,VWS V14.00,2013-04-28 10:00:00,
2013-04-28 05:02:00,68.4,34.0,25.49,South,190,3.1,4.0,28,0.00,,,0.00,VWS V14.00,2013-04-28 10:02:00,
2013-04-28 05:03:00,68.4,34.0,25.49,South,190,4.0,4.0,28,0.00,,,0.00,VWS V14.00,2013-04-28 10:03:00,
2013-04-28 05:04:00,68.4,34.0,25.49,South,190,4.0,4.0,28,0.00,,,0.00,VWS V14.00,2013-04-28 10:04:00,
2013-04-28 05:05:00,68.4,34.0,25.49,South,190,2.7,4.0,28,0.00,,,0.00,VWS V14.00,2013-04-28 10:05:00,
2013-04-28 05:07:00,68.4,34.0,25.49,South,190,3.1,4.0,28,0.00,,,0.00,VWS V14.00,2013-04-28 10:07:00,
2013-04-28 05:09:00,68.4,35.8,25.49,South,187,4.0,5.4,30,0.00,,,0.00,VWS V14.00,2013-04-28 10:09:00,
2013-04-28 05:10:00,68.4,35.8,25.49,South,187,5.4,5.4,30,0.00,,,0.00,VWS V14.00,2013-04-28 10:10:00,
2013-04-28 05:11:00,68.4,35.8,25.49,South,187,3.6,5.8,30,0.00,,,0.00,VWS V14.00,2013-04-28 10:11:00,
2013-04-28 05:12:00,68.4,35.8,25.49,South,187,3.6,5.8,30,0.00,,,0.00,VWS V14.00,2013-04-28 10:12:00,
2013-04-28 05:14:00,67.5,37.4,25.49,South,187,4.0,5.8,33,0.00,,,0.00,VWS V14.00,2013-04-28 10:14:00,
2013-04-28 05:15:00,67.5,37.4,25.49,South,187,2.7,5.8,33,0.00,,,0.00,VWS V14.00,2013-04-28 10:15:00,
2013-04-28 05:16:00,67.5,37.4,25.49,South,187,0.0,5.8,33,0.00,,,0.00,VWS V14.00,2013-04-28 10:16:00,
2013-04-28 05:17:00,67.5,37.4,25.49,South,187,3.1,5.8,33,0.00,,,0.00,VWS V14.00,2013-04-28 10:17:00,
2013-04-28 05:20:00,67.3,38.0,25.49,South,187,3.1,4.0,34,0.00,,,0.00,VWS V14.00,2013-04-28 10:20:00,
2013-04-28 05:21:00,67.3,38.7,25.49,South,187,2.7,4.0,35,0.00,,,0.00,VWS V14.00,2013-04-28 10:21:00,
2013-04-28 05:22:00,67.5,38.9,25.49,South,187,0.0,4.0,35,0.00,,,0.00,VWS V14.00,2013-04-28 10:22:00,
2013-04-28 05:23:00,67.5,38.9,25.49,South,187,4.0,4.9,35,0.00,,,0.00,VWS V14.00,2013-04-28 10:23:00,
2013-04-28 05:25:00,67.5,38.9,25.49,South,187,3.6,4.9,35,0.00,,,0.00,VWS V14.00,2013-04-28 10:25:00,
2013-04-28 05:26:00,67.5,38.9,25.49,South,187,2.7,4.9,35,0.00,,,0.00,VWS V14.00,2013-04-28 10:26:00,
2013-04-28 05:27:00,67.5,38.9,25.49,South,187,2.7,4.9,35,0.00,,,0.00,VWS V14.00,2013-04-28 10:27:00,
2013-04-28 05:28:00,67.5,38.9,25.49,South,187,3.6,4.9,35,0.00,,,0.00,VWS V14.00,2013-04-28 10:28:00,
2013-04-28 05:30:00,67.5,38.9,25.49,South,187,2.7,4.9,35,0.00,,,0.00,VWS V14.00,2013-04-28 10:30:00,
2013-04-28 05:32:00,67.5,38.9,25.49,South,187,3.1,3.1,35,0.00,,,0.00,VWS V14.00,2013-04-28 10:32:00,
2013-04-28 05:33:00,67.5,38.9,25.49,South,187,2.2,3.1,35,0.00,,,0.00,VWS V14.00,2013-04-28 10:33:00,
2013-04-28 05:35:00,67.5,38.9,25.49,South,187,2.7,6.3,35,0.00,,,0.00,VWS V14.00,2013-04-28 10:35:00,
2013-04-28 05:36:00,67.5,38.9,25.49,South,187,5.4,6.3,35,0.00,,,0.00,VWS V14.00,2013-04-28 10:36:00,
2013-04-28 05:37:00,67.6,37.5,25.49,South,187,5.4,6.3,33,0.00,,,0.00,VWS V14.00,2013-04-28 10:37:00,
2013-04-28 05:38:00,67.8,37.7,25.49,South,187,5.8,6.3,33,0.00,,,0.00,VWS V14.00,2013-04-28 10:38:00,
2013-04-28 05:40:00,67.8,37.7,25.49,South,188,3.6,7.6,33,0.00,,,0.00,VWS V14.00,2013-04-28 10:40:00,
2013-04-28 05:41:00,67.8,36.9,25.49,South,188,4.0,7.6,32,0.00,,,0.00,VWS V14.00,2013-04-28 10:41:00,
2013-04-28 05:42:00,67.6,37.5,25.49,South,187,4.0,7.6,33,0.00,,,0.00,VWS V14.00,2013-04-28 10:42:00,
2013-04-28 05:43:00,67.6,37.5,25.49,South,187,3.6,7.6,33,0.00,,,0.00,VWS V14.00,2013-04-28 10:43:00,
2013-04-28 05:44:00,67.6,37.5,25.49,South,187,3.1,7.6,33,0.00,,,0.00,VWS V14.00,2013-04-28 10:44:00,
2013-04-28 05:45:00,67.6,37.5,25.49,South,187,3.1,7.6,33,0.00,,,0.00,VWS V14.00,2013-04-28 10:45:00,
2013-04-28 05:47:00,67.6,37.5,25.49,South,187,3.6,7.6,33,0.00,,,0.00,VWS V14.00,2013-04-28 10:47:00,
2013-04-28 05:48:00,67.6,37.5,25.49,South,187,4.0,4.9,33,0.00,,,0.00,VWS V14.00,2013-04-28 10:48:00,
2013-04-28 05:49:00,67.6,37.5,25.46,South,187,4.9,5.8,33,0.00,,,0.00,VWS V14.00,2013-04-28 10:49:00,
2013-04-28 05:50:00,67.5,37.4,25.46,South,187,4.0,5.8,33,0.00,,,0.00,VWS V14.00,2013-04-28 10:50:00,
2013-04-28 05:53:00,67.5,38.1,25.46,South,187,4.0,5.8,34,0.00,,,0.00,VWS V14.00,2013-04-28 10:53:00,
2013-04-28 05:54:00,67.3,38.0,25.46,South,187,0.0,5.8,34,0.00,,,0.00,VWS V14.00,2013-04-28 10:54:00,
2013-04-28 05:55:00,67.3,38.0,25.46,South,187,0.0,5.8,34,0.00,,,0.00,VWS V14.00,2013-04-28 10:55:00,
2013-04-28 05:57:00,67.1,37.1,25.46,South,187,0.0,5.8,33,0.00,,,0.00,VWS V14.00,2013-04-28 10:57:00,
2013-04-28 05:58:00,67.1,38.6,25.46,South,187,3.6,5.8,35,0.00,,,0.00,VWS V14.00,2013-04-28 10:58:00,
2013-04-28 06:00:00,67.1,38.6,25.46,South,187,2.7,5.8,35,0.00,,,0.00,VWS V14.00,2013-04-28 11:00:00,
2013-04-28 06:02:00,67.1,38.6,25.46,South,187,2.7,5.8,35,0.00,,,0.00,VWS V14.00,2013-04-28 11:02:00,
2013-04-28 06:03:00,67.1,38.6,25.46,South,187,2.7,3.6,35,0.00,,,0.00,VWS V14.00,2013-04-28 11:03:00,
2013-04-28 06:05:00,67.1,38.6,25.46,South,187,0.0,4.0,35,0.00,,,0.00,VWS V14.00,2013-04-28 11:05:00,
2013-04-28 06:06:00,67.1,38.6,25.46,South,187,0.0,4.0,35,0.00,,,0.00,VWS V14.00,2013-04-28 11:06:00,
2013-04-28 06:07:00,67.1,38.6,25.46,South,187,2.7,4.0,35,0.00,,,0.00,VWS V14.00,2013-04-28 11:07:00,
2013-04-28 06:09:00,67.1,38.6,25.46,South,187,2.7,4.0,35,0.00,,,0.00,VWS V14.00,2013-04-28 11:09:00,
2013-04-28 06:11:00,67.1,38.6,25.46,South,187,2.7,4.0,35,0.00,,,0.00,VWS V14.00,2013-04-28 11:11:00,
2013-04-28 06:12:00,67.1,38.6,25.46,South,187,2.7,4.0,35,0.00,,,0.00,VWS V14.00,2013-04-28 11:12:00,
2013-04-28 06:14:00,67.1,38.6,25.46,South,187,3.6,4.0,35,0.00,,,0.00,VWS V14.00,2013-04-28 11:14:00,
2013-04-28 06:16:00,67.1,38.6,25.46,South,187,3.6,4.0,35,0.00,,,0.00,VWS V14.00,2013-04-28 11:16:00,
2013-04-28 06:17:00,66.2,43.1,25.46,South,187,0.0,2.2,43,0.00,,,0.00,VWS V14.00,2013-04-28 11:17:00,
2013-04-28 06:18:00,66.2,43.1,25.46,South,187,0.0,2.2,43,0.00,,,0.00,VWS V14.00,2013-04-28 11:18:00,
2013-04-28 06:19:00,66.0,42.9,25.43,South,187,0.0,2.2,43,0.00,,,0.00,VWS V14.00,2013-04-28 11:19:00,
2013-04-28 06:22:00,66.0,45.2,25.43,South,187,0.0,2.2,47,0.00,,,0.00,VWS V14.00,2013-04-28 11:22:00,
2013-04-28 06:23:00,66.0,46.3,25.43,South,187,0.0,2.2,49,0.00,,,0.00,VWS V14.00,2013-04-28 11:23:00,
2013-04-28 06:24:00,65.8,46.2,25.43,South,187,0.0,2.2,49,0.00,,,0.00,VWS V14.00,2013-04-28 11:24:00,
2013-04-28 06:25:00,65.7,47.1,25.43,South,187,0.0,2.2,51,0.00,,,0.00,VWS V14.00,2013-04-28 11:25:00,
2013-04-28 06:28:00,65.1,45.5,25.43,South,187,0.0,2.2,49,0.00,,,0.00,VWS V14.00,2013-04-28 11:28:00,
2013-04-28 06:29:00,64.9,45.3,25.43,South,187,0.0,2.2,49,0.00,,,0.00,VWS V14.00,2013-04-28 11:29:00,
2013-04-28 06:30:00,64.8,45.7,25.43,South,187,0.0,2.2,50,0.00,,,0.00,VWS V14.00,2013-04-28 11:30:00,
2013-04-28 06:33:00,64.6,47.1,25.43,South,187,0.0,0.0,53,0.00,,,0.00,VWS V14.00,2013-04-28 11:33:00,
2013-04-28 06:34:00,64.4,46.9,25.46,South,187,0.0,0.0,53,0.00,,,0.00,VWS V14.00,2013-04-28 11:34:00,
2013-04-28 06:35:00,64.2,46.8,25.46,South,187,0.0,0.0,53,0.00,,,0.00,VWS V14.00,2013-04-28 11:35:00,
2013-04-28 06:36:00,64.2,46.8,25.46,South,187,0.0,0.0,53,0.00,,,0.00,VWS V14.00,2013-04-28 11:36:00,
2013-04-28 06:38:00,64.2,46.8,25.46,South,187,0.0,0.0,53,0.00,,,0.00,VWS V14.00,2013-04-28 11:38:00,
2013-04-28 06:39:00,64.2,46.8,25.46,South,187,0.0,0.0,53,0.00,,,0.00,VWS V14.00,2013-04-28 11:39:00,
2013-04-28 06:41:00,64.2,46.8,25.46,South,187,0.0,0.0,53,0.00,,,0.00,VWS V14.00,2013-04-28 11:41:00,
2013-04-28 06:42:00,64.2,46.8,25.46,South,187,0.0,0.0,53,0.00,,,0.00,VWS V14.00,2013-04-28 11:42:00,
2013-04-28 06:43:00,64.2,46.8,25.46,South,187,0.0,0.0,53,0.00,,,0.00,VWS V14.00,2013-04-28 11:43:00,
2013-04-28 06:45:00,64.2,46.8,25.46,South,187,0.0,0.0,53,0.00,,,0.00,VWS V14.00,2013-04-28 11:45:00,
2013-04-28 06:46:00,64.2,46.8,25.46,South,187,0.0,0.0,53,0.00,,,0.00,VWS V14.00,2013-04-28 11:46:00,
2013-04-28 06:47:00,64.2,46.8,25.46,South,187,0.0,0.0,53,0.00,,,0.00,VWS V14.00,2013-04-28 11:47:00,
2013-04-28 06:49:00,63.1,44.7,25.46,South,187,0.0,0.0,51,0.00,,,0.00,VWS V14.00,2013-04-28 11:49:00,
2013-04-28 06:51:00,63.1,46.2,25.46,South,187,0.0,0.0,54,0.00,,,0.00,VWS V14.00,2013-04-28 11:51:00,
2013-04-28 06:52:00,63.1,46.7,25.46,South,187,0.0,0.0,55,0.00,,,0.00,VWS V14.00,2013-04-28 11:52:00,
2013-04-28 06:53:00,63.1,46.7,25.46,South,187,0.0,0.0,55,0.00,,,0.00,VWS V14.00,2013-04-28 11:53:00,
2013-04-28 06:54:00,63.0,47.0,25.46,South,187,0.0,0.0,56,0.00,,,0.00,VWS V14.00,2013-04-28 11:54:00,
2013-04-28 06:57:00,62.8,47.8,25.46,South,187,0.0,0.0,58,0.00,,,0.00,VWS V14.00,2013-04-28 11:57:00,
2013-04-28 06:58:00,63.0,48.4,25.46,South,187,0.0,0.0,59,0.00,,,0.00,VWS V14.00,2013-04-28 11:58:00,
2013-04-28 06:59:00,63.0,48.9,25.46,South,187,0.0,0.0,60,0.00,,,0.00,VWS V14.00,2013-04-28 11:59:00,
2013-04-28 07:04:00,63.3,51.8,25.46,South,187,0.0,0.0,66,0.00,,,0.00,VWS V14.00,2013-04-28 12:04:00,
2013-04-28 07:05:00,63.5,52.0,25.43,South,187,0.0,0.0,66,0.00,,,0.00,VWS V14.00,2013-04-28 12:05:00,
2013-04-28 07:09:00,63.3,51.0,25.43,South,187,0.0,0.0,64,0.00,,,0.00,VWS V14.00,2013-04-28 12:09:00,
2013-04-28 07:11:00,63.3,49.7,25.43,South,187,0.0,0.0,61,0.00,,,0.00,VWS V14.00,2013-04-28 12:11:00,
2013-04-28 07:14:00,63.1,48.1,25.43,South,187,0.0,0.0,58,0.00,,,0.00,VWS V14.00,2013-04-28 12:14:00,
2013-04-28 07:15:00,63.1,48.1,25.43,South,187,0.0,0.0,58,0.00,,,0.00,VWS V14.00,2013-04-28 12:15:00,
2013-04-28 07:16:00,63.1,48.1,25.43,South,187,0.0,0.0,58,0.00,,,0.00,VWS V14.00,2013-04-28 12:16:00,
2013-04-28 07:20:00,63.1,48.1,25.46,South,187,0.0,0.0,58,0.00,,,0.00,VWS V14.00,2013-04-28 12:20:00,
2013-04-28 07:21:00,63.1,50.8,25.46,South,187,0.0,0.0,64,0.00,,,0.00,VWS V14.00,2013-04-28 12:21:00,
2013-04-28 07:22:00,63.1,50.8,25.46,South,187,0.0,0.0,64,0.00,,,0.00,VWS V14.00,2013-04-28 12:22:00,
2013-04-28 07:23:00,63.3,50.5,25.46,South,187,0.0,0.0,63,0.00,,,0.00,VWS V14.00,2013-04-28 12:23:00,
2013-04-28 07:25:00,63.3,50.5,25.46,South,187,0.0,0.0,63,0.00,,,0.00,VWS V14.00,2013-04-28 12:25:00,
2013-04-28 07:27:00,63.3,50.5,25.46,South,187,0.0,0.0,63,0.00,,,0.00,VWS V14.00,2013-04-28 12:27:00,
2013-04-28 07:28:00,63.3,50.5,25.46,South,187,0.0,0.0,63,0.00,,,0.00,VWS V14.00,2013-04-28 12:28:00,
2013-04-28 07:29:00,63.3,50.5,25.46,South,187,0.0,0.0,63,0.00,,,0.00,VWS V14.00,2013-04-28 12:29:00,
2013-04-28 07:31:00,63.3,50.5,25.46,South,187,0.0,0.0,63,0.00,,,0.00,VWS V14.00,2013-04-28 12:31:00,
2013-04-28 07:33:00,63.3,50.5,25.46,South,187,0.0,0.0,63,0.00,,,0.00,VWS V14.00,2013-04-28 12:33:00,
2013-04-28 07:34:00,63.3,50.5,25.46,South,187,0.0,0.0,63,0.00,,,0.00,VWS V14.00,2013-04-28 12:34:00,
2013-04-28 07:35:00,63.3,50.5,25.43,South,187,0.0,0.0,63,0.00,,,0.00,VWS V14.00,2013-04-28 12:35:00,
2013-04-28 07:36:00,63.3,50.5,25.43,South,187,0.0,0.0,63,0.00,,,0.00,VWS V14.00,2013-04-28 12:36:00,
2013-04-28 07:39:00,63.3,50.5,25.43,South,187,0.0,0.0,63,0.00,,,0.00,VWS V14.00,2013-04-28 12:39:00,
2013-04-28 07:40:00,63.3,50.5,25.43,South,187,0.0,0.0,63,0.00,,,0.00,VWS V14.00,2013-04-28 12:40:00,
2013-04-28 07:41:00,64.6,53.0,25.43,South,187,0.0,0.0,66,0.00,,,0.00,VWS V14.00,2013-04-28 12:41:00,
2013-04-28 07:44:00,65.1,54.3,25.43,South,187,0.0,0.0,68,0.00,,,0.00,VWS V14.00,2013-04-28 12:44:00,
2013-04-28 07:45:00,64.9,54.5,25.43,South,187,0.0,0.0,69,0.00,,,0.00,VWS V14.00,2013-04-28 12:45:00,
2013-04-28 07:46:00,65.1,55.1,25.43,South,187,0.0,0.0,70,0.00,,,0.00,VWS V14.00,2013-04-28 12:46:00,
2013-04-28 07:48:00,64.9,54.9,25.43,South,187,0.0,0.0,70,0.00,,,0.00,VWS V14.00,2013-04-28 12:48:00,
2013-04-28 07:49:00,64.9,54.9,25.43,South,187,0.0,0.0,70,0.00,,,0.00,VWS V14.00,2013-04-28 12:49:00,
2013-04-28 07:50:00,64.9,54.9,25.43,South,187,0.0,0.0,70,0.00,,,0.00,VWS V14.00,2013-04-28 12:50:00,
2013-04-28 07:52:00,64.9,54.9,25.43,South,187,4.0,4.0,70,0.00,,,0.00,VWS V14.00,2013-04-28 12:52:00,
2013-04-28 07:53:00,64.9,54.9,25.43,South,187,2.7,4.0,70,0.00,,,0.00,VWS V14.00,2013-04-28 12:53:00,
2013-04-28 07:54:00,64.9,54.9,25.43,South,187,2.7,4.0,70,0.00,,,0.00,VWS V14.00,2013-04-28 12:54:00,
2013-04-28 07:55:00,64.9,54.9,25.43,South,187,0.0,4.0,70,0.00,,,0.00,VWS V14.00,2013-04-28 12:55:00,
2013-04-28 07:56:00,64.9,54.9,25.43,South,187,0.0,4.0,70,0.00,,,0.00,VWS V14.00,2013-04-28 12:56:00,
2013-04-28 07:59:00,65.7,57.2,25.43,South,187,3.6,4.9,74,0.00,,,0.00,VWS V14.00,2013-04-28 12:59:00,
2013-04-28 08:00:00,65.8,57.3,25.43,South,187,4.5,4.9,74,0.00,,,0.00,VWS V14.00,2013-04-28 13:00:00,
2013-04-28 08:01:00,65.8,57.3,25.43,South,188,3.6,4.9,74,0.00,,,0.00,VWS V14.00,2013-04-28 13:01:00,
2013-04-28 08:04:00,66.0,57.5,25.43,South,187,6.3,6.3,74,0.00,,,0.00,VWS V14.00,2013-04-28 13:04:00,
2013-04-28 08:05:00,66.2,57.7,25.43,South,187,4.9,6.3,74,0.00,,,0.00,VWS V14.00,2013-04-28 13:05:00,
2013-04-28 08:06:00,66.2,57.7,25.43,South,184,4.0,6.3,74,0.00,,,0.00,VWS V14.00,2013-04-28 13:06:00,
2013-04-28 08:09:00,66.4,57.8,25.43,South,176,4.0,6.3,74,0.00,,,0.00,VWS V14.00,2013-04-28 13:09:00,
2013-04-28 08:10:00,66.6,57.7,25.43,South,176,4.0,6.3,73,0.00,,,0.00,VWS V14.00,2013-04-28 13:10:00,
2013-04-28 08:11:00,66.6,57.7,25.43,South,176,5.4,6.3,73,0.00,,,0.00,VWS V14.00,2013-04-28 13:11:00,
2013-04-28 08:12:00,66.7,57.8,25.43,South,176,2.2,6.3,73,0.00,,,0.00,VWS V14.00,2013-04-28 13:12:00,
2013-04-28 08:14:00,66.9,58.0,25.43,South,176,5.4,6.3,73,0.00,,,0.00,VWS V14.00,2013-04-28 13:14:00,
2013-04-28 08:16:00,67.1,58.2,25.43,South,176,5.8,6.3,73,0.00,,,0.00,VWS V14.00,2013-04-28 13:16:00,
2013-04-28 08:17:00,67.3,57.6,25.43,SSE,164,5.8,6.3,71,0.00,,,0.00,VWS V14.00,2013-04-28 13:17:00,
2013-04-28 08:18:00,67.1,56.2,25.43,South,187,7.6,7.6,68,0.00,,,0.00,VWS V14.00,2013-04-28 13:18:00,
2013-04-28 08:19:00,67.3,53.4,25.43,SSW,200,5.8,8.7,61,0.00,,,0.00,VWS V14.00,2013-04-28 13:19:00,
2013-04-28 08:21:00,67.5,50.2,25.43,South,182,6.3,8.7,54,0.00,,,0.00,VWS V14.00,2013-04-28 13:21:00,
2013-04-28 08:24:00,67.8,39.9,25.43,SSE,155,4.9,8.7,36,0.00,,,0.00,VWS V14.00,2013-04-28 13:24:00,
2013-04-28 08:26:00,68.0,38.6,25.43,SSW,205,5.4,8.7,34,0.00,,,0.00,VWS V14.00,2013-04-28 13:26:00,
2013-04-28 08:27:00,67.8,37.7,25.43,SSW,201,5.8,8.7,33,0.00,,,0.00,VWS V14.00,2013-04-28 13:27:00,
2013-04-28 08:28:00,68.0,36.3,25.43,SSW,201,4.9,8.7,31,0.00,,,0.00,VWS V14.00,2013-04-28 13:28:00,
2013-04-28 08:29:00,68.2,35.6,25.43,SSW,200,4.0,8.7,30,0.00,,,0.00,VWS V14.00,2013-04-28 13:29:00,
2013-04-28 08:31:00,68.5,35.9,25.43,South,181,4.0,8.7,30,0.00,,,0.00,VWS V14.00,2013-04-28 13:31:00,
2013-04-28 08:32:00,68.5,35.0,25.43,South,186,5.8,8.7,29,0.00,,,0.00,VWS V14.00,2013-04-28 13:32:00,
2013-04-28 08:33:00,68.7,34.3,25.43,SSW,199,5.4,6.3,28,0.00,,,0.00,VWS V14.00,2013-04-28 13:33:00,
2013-04-28 08:35:00,68.9,33.6,25.43,SSW,207,5.8,6.3,27,0.00,,,0.00,VWS V14.00,2013-04-28 13:35:00,
2013-04-28 08:37:00,69.1,32.8,25.43,SSW,193,5.4,6.3,26,0.00,,,0.00,VWS V14.00,2013-04-28 13:37:00,
2013-04-28 08:38:00,69.1,32.8,25.43,SSE,158,5.4,6.3,26,0.00,,,0.00,VWS V14.00,2013-04-28 13:38:00,
2013-04-28 08:39:00,69.1,32.8,25.43,SSW,207,4.0,6.3,26,0.00,,,0.00,VWS V14.00,2013-04-28 13:39:00,
2013-04-28 08:41:00,69.4,32.1,25.43,South,187,5.8,7.6,25,0.00,,,0.00,VWS V14.00,2013-04-28 13:41:00,
2013-04-28 08:43:00,69.6,31.3,25.43,South,178,4.9,7.6,24,0.00,,,0.00,VWS V14.00,2013-04-28 13:43:00,
2013-04-28 08:44:00,70.3,30.8,25.43,South,177,3.6,7.6,23,0.00,,,0.00,VWS V14.00,2013-04-28 13:44:00,
2013-04-28 08:45:00,70.3,29.7,25.43,SSW,198,7.2,7.6,22,0.00,,,0.00,VWS V14.00,2013-04-28 13:45:00,
2013-04-28 08:47:00,70.0,29.4,25.43,SSW,204,5.4,8.1,22,0.00,,,0.00,VWS V14.00,2013-04-28 13:47:00,
2013-04-28 08:49:00,70.3,29.7,25.43,SSW,210,6.3,6.3,22,0.00,,,0.00,VWS V14.00,2013-04-28 13:49:00,
2013-04-28 08:50:00,70.0,28.3,25.43,SW,218,5.8,8.3,21,0.00,,,0.00,VWS V14.00,2013-04-28 13:50:00,
2013-04-28 08:52:00,70.3,28.6,25.43,SW,217,5.4,8.3,21,0.00,,,0.00,VWS V14.00,2013-04-28 13:52:00,
2013-04-28 08:54:00,70.7,28.9,25.43,SSW,204,5.4,8.3,21,0.00,,,0.00,VWS V14.00,2013-04-28 13:54:00,
2013-04-28 08:55:00,70.5,27.5,25.43,South,182,5.4,8.3,20,0.00,,,0.00,VWS V14.00,2013-04-28 13:55:00,
2013-04-28 08:56:00,70.3,28.6,25.43,South,190,6.3,8.3,21,0.00,,,0.00,VWS V14.00,2013-04-28 13:56:00,
2013-04-28 08:57:00,70.9,29.0,25.43,SSW,203,5.8,8.3,21,0.00,,,0.00,VWS V14.00,2013-04-28 13:57:00,
2013-04-28 08:59:00,70.7,27.7,25.43,SSW,195,5.8,8.3,20,0.00,,,0.00,VWS V14.00,2013-04-28 13:59:00,
2013-04-28 09:00:00,70.7,27.7,25.43,South,184,2.7,8.3,20,0.00,,,0.00,VWS V14.00,2013-04-28 14:00:00,
2013-04-28 09:01:00,70.7,27.7,25.43,SSW,211,4.9,8.3,20,0.00,,,0.00,VWS V14.00,2013-04-28 14:01:00,
2013-04-28 09:04:00,71.1,28.0,25.43,SSW,210,4.0,4.9,20,0.00,,,0.00,VWS V14.00,2013-04-28 14:04:00,
2013-04-28 09:05:00,71.2,28.1,25.43,SSW,202,4.0,5.4,20,0.00,,,0.00,VWS V14.00,2013-04-28 14:05:00,
2013-04-28 09:06:00,71.4,28.3,25.43,SSW,197,4.9,5.4,20,0.00,,,0.00,VWS V14.00,2013-04-28 14:06:00,
2013-04-28 09:07:00,71.1,28.0,25.43,WSW,239,5.8,5.8,20,0.00,,,0.00,VWS V14.00,2013-04-28 14:07:00,
2013-04-28 09:10:00,70.7,28.9,25.43,SSW,204,0.0,7.6,21,0.00,,,0.00,VWS V14.00,2013-04-28 14:10:00,
2013-04-28 09:11:00,70.2,27.2,25.43,South,170,8.1,8.1,20,0.00,,,0.00,VWS V14.00,2013-04-28 14:11:00,
2013-04-28 09:13:00,70.9,27.9,25.43,SSW,192,5.4,8.1,20,0.00,,,0.00,VWS V14.00,2013-04-28 14:13:00,
2013-04-28 09:16:00,72.0,26.2,25.43,SSW,206,6.3,8.1,18,0.00,,,0.00,VWS V14.00,2013-04-28 14:16:00,
2013-04-28 09:17:00,73.9,26.4,25.43,SSW,195,3.6,3.6,17,0.00,,,0.00,VWS V14.00,2013-04-28 14:17:00,
2013-04-28 09:18:00,73.2,27.2,25.43,SSW,195,2.7,3.6,18,0.00,,,0.00,VWS V14.00,2013-04-28 14:18:00,
2013-04-28 09:19:00,72.5,26.6,25.43,SW,228,4.0,5.8,18,0.00,,,0.00,VWS V14.00,2013-04-28 14:19:00,
2013-04-28 09:21:00,73.0,25.7,25.43,SSW,206,5.4,6.3,17,0.00,,,0.00,VWS V14.00,2013-04-28 14:21:00,
2013-04-28 09:23:00,73.0,25.7,25.43,South,182,4.9,6.3,17,0.00,,,0.00,VWS V14.00,2013-04-28 14:23:00,
2013-04-28 09:24:00,74.5,26.9,25.43,SW,227,5.4,6.3,17,0.00,,,0.00,VWS V14.00,2013-04-28 14:24:00,
2013-04-28 09:26:00,75.7,26.4,25.43,South,183,4.9,6.3,16,0.00,,,0.00,VWS V14.00,2013-04-28 14:26:00,
2013-04-28 09:28:00,75.4,26.1,25.43,SW,220,5.8,6.3,16,0.00,,,0.00,VWS V14.00,2013-04-28 14:28:00,
2013-04-28 09:29:00,74.7,27.0,25.43,SSW,197,4.9,6.3,17,0.00,,,0.00,VWS V14.00,2013-04-28 14:29:00,
2013-04-28 09:30:00,75.0,27.3,25.43,SSW,211,5.4,6.3,17,0.00,,,0.00,VWS V14.00,2013-04-28 14:30:00,
2013-04-28 09:32:00,78.4,28.6,25.43,SSW,209,5.4,6.3,16,0.00,,,0.00,VWS V14.00,2013-04-28 14:32:00,
2013-04-28 09:35:00,77.5,27.9,25.43,SSW,209,2.7,6.7,16,0.00,,,0.00,VWS V14.00,2013-04-28 14:35:00,
2013-04-28 09:36:00,77.5,27.9,25.43,SSW,213,0.0,6.7,16,0.00,,,0.00,VWS V14.00,2013-04-28 14:36:00,
2013-04-28 09:37:00,77.2,27.6,25.43,South,191,5.8,7.6,16,0.00,,,0.00,VWS V14.00,2013-04-28 14:37:00,
2013-04-28 09:41:00,75.4,26.1,25.43,SSW,211,4.0,8.1,16,0.00,,,0.00,VWS V14.00,2013-04-28 14:41:00,
2013-04-28 09:42:00,74.7,27.0,25.43,SSW,213,4.9,8.1,17,0.00,,,0.00,VWS V14.00,2013-04-28 14:42:00,
2013-04-28 09:43:00,75.0,27.3,25.43,SSW,213,4.9,8.1,17,0.00,,,0.00,VWS V14.00,2013-04-28 14:43:00,
2013-04-28 09:46:00,78.6,28.7,25.43,SSW,196,6.3,8.1,16,0.00,,,0.00,VWS V14.00,2013-04-28 14:46:00,
2013-04-28 09:47:00,79.0,27.4,25.43,South,186,6.3,8.1,15,0.00,,,0.00,VWS V14.00,2013-04-28 14:47:00,
2013-04-28 09:48:00,77.4,27.7,25.43,SW,218,5.8,5.8,16,0.00,,,0.00,VWS V14.00,2013-04-28 14:48:00,
2013-04-28 09:51:00,80.1,28.3,25.43,WSW,239,3.1,5.8,15,0.00,,,0.00,VWS V14.00,2013-04-28 14:51:00,
2013-04-28 09:53:00,79.3,27.7,25.43,SW,226,3.1,5.8,15,0.00,,,0.00,VWS V14.00,2013-04-28 14:53:00,
2013-04-28 09:56:00,76.6,27.1,25.43,SSW,198,5.8,8.7,16,0.00,,,0.00,VWS V14.00,2013-04-28 14:56:00,
2013-04-28 09:57:00,76.3,26.8,25.43,SSW,211,7.6,8.7,16,0.00,,,0.00,VWS V14.00,2013-04-28 14:57:00,
2013-04-28 09:58:00,78.1,28.3,25.43,SSW,213,4.0,8.7,16,0.00,,,0.00,VWS V14.00,2013-04-28 14:58:00,
2013-04-28 10:02:00,76.5,27.0,25.43,SW,223,8.3,8.7,16,0.00,,,0.00,VWS V14.00,2013-04-28 15:02:00,
2013-04-28 10:03:00,77.5,27.9,25.43,SSW,193,2.2,7.6,16,0.00,,,0.00,VWS V14.00,2013-04-28 15:03:00,
2013-04-28 10:04:00,80.1,28.3,25.46,South,183,4.0,7.6,15,0.00,,,0.00,VWS V14.00,2013-04-28 15:04:00,
2013-04-28 10:07:00,78.1,28.3,25.46,WSW,238,5.8,9.2,16,0.00,,,0.00,VWS V14.00,2013-04-28 15:07:00,
2013-04-28 10:09:00,77.0,27.4,25.46,SSW,206,8.7,9.2,16,0.00,,,0.00,VWS V14.00,2013-04-28 15:09:00,
2013-04-28 10:10:00,75.6,26.3,25.46,SSW,198,5.4,9.2,16,0.00,,,0.00,VWS V14.00,2013-04-28 15:10:00,
2013-04-28 10:13:00,79.2,27.6,25.46,SSW,206,3.1,9.2,15,0.00,,,0.00,VWS V14.00,2013-04-28 15:13:00,
2013-04-28 10:14:00,79.2,27.6,25.46,SW,231,3.6,9.2,15,0.00,,,0.00,VWS V14.00,2013-04-28 15:14:00,
2013-04-28 10:15:00,82.2,30.0,25.46,SSW,209,2.7,9.2,15,0.00,,,0.00,VWS V14.00,2013-04-28 15:15:00,
2013-04-28 10:18:00,78.6,28.7,25.46,SW,225,11.0,11.4,16,0.00,,,0.00,VWS V14.00,2013-04-28 15:18:00,
2013-04-28 10:20:00,78.3,28.4,25.46,SSW,202,7.6,11.4,16,0.00,,,0.00,VWS V14.00,2013-04-28 15:20:00,
2013-04-28 10:21:00,78.4,28.6,25.46,SSE,162,5.8,11.4,16,0.00,,,0.00,VWS V14.00,2013-04-28 15:21:00,
2013-04-28 10:23:00,82.4,28.5,25.46,SSE,162,4.9,11.4,14,0.00,,,0.00,VWS V14.00,2013-04-28 15:23:00,
2013-04-28 10:25:00,81.3,29.3,25.46,West,272,6.3,11.4,15,0.00,,,0.00,VWS V14.00,2013-04-28 15:25:00,
2013-04-28 10:26:00,82.2,30.0,25.46,SW,225,5.4,11.4,15,0.00,,,0.00,VWS V14.00,2013-04-28 15:26:00,
2013-04-28 10:27:00,81.7,29.6,25.46,South,189,5.8,11.4,15,0.00,,,0.00,VWS V14.00,2013-04-28 15:27:00,
2013-04-28 10:29:00,83.7,29.5,25.46,SW,219,4.0,11.4,14,0.00,,,0.00,VWS V14.00,2013-04-28 15:29:00,
2013-04-28 10:30:00,82.8,28.8,25.46,South,180,7.2,11.4,14,0.00,,,0.00,VWS V14.00,2013-04-28 15:30:00,
2013-04-28 10:32:00,82.0,29.9,25.46,SSW,200,5.8,5.8,15,0.00,,,0.00,VWS V14.00,2013-04-28 15:32:00,
2013-04-28 10:33:00,81.7,29.6,25.46,SW,231,3.1,5.8,15,0.00,,,0.00,VWS V14.00,2013-04-28 15:33:00,
2013-04-28 10:34:00,79.9,28.1,25.46,South,177,6.3,7.6,15,0.00,,,0.00,VWS V14.00,2013-04-28 15:34:00,
2013-04-28 10:35:00,83.3,29.2,25.46,South,179,4.0,7.6,14,0.00,,,0.00,VWS V14.00,2013-04-28 15:35:00,
2013-04-28 10:37:00,79.9,28.1,25.46,SSW,199,8.3,8.7,15,0.00,,,0.00,VWS V14.00,2013-04-28 15:37:00,
2013-04-28 10:38:00,79.5,27.9,25.46,SSE,166,6.3,8.7,15,0.00,,,0.00,VWS V14.00,2013-04-28 15:38:00,
2013-04-28 10:39:00,80.2,28.4,25.46,South,189,6.3,8.7,15,0.00,,,0.00,VWS V14.00,2013-04-28 15:39:00,
2013-04-28 10:41:00,77.5,27.9,25.46,South,187,10.5,10.5,16,0.00,,,0.00,VWS V14.00,2013-04-28 15:41:00,
2013-04-28 10:42:00,77.4,27.7,25.46,SW,215,5.8,10.5,16,0.00,,,0.00,VWS V14.00,2013-04-28 15:42:00,
2013-04-28 10:44:00,77.4,27.7,25.46,SSW,202,5.8,10.5,16,0.00,,,0.00,VWS V14.00,2013-04-28 15:44:00,
2013-04-28 10:46:00,79.3,27.7,25.46,SSW,208,8.7,10.5,15,0.00,,,0.00,VWS V14.00,2013-04-28 15:46:00,
2013-04-28 10:47:00,79.3,27.7,25.46,SSW,211,9.2,10.5,15,0.00,,,0.00,VWS V14.00,2013-04-28 15:47:00,
2013-04-28 10:48:00,78.4,28.6,25.46,South,183,6.3,9.2,16,0.00,,,0.00,VWS V14.00,2013-04-28 15:48:00,
2013-04-28 10:51:00,83.3,29.2,25.49,SSW,195,3.6,9.2,14,0.00,,,0.00,VWS V14.00,2013-04-28 15:51:00,
2013-04-28 10:52:00,83.3,29.2,25.49,South,183,8.7,9.2,14,0.00,,,0.00,VWS V14.00,2013-04-28 15:52:00,
2013-04-28 10:54:00,85.3,30.7,25.49,SSW,202,5.4,9.2,14,0.00,,,0.00,VWS V14.00,2013-04-28 15:54:00,
2013-04-28 10:56:00,81.7,29.6,25.49,SE,138,4.9,9.2,15,0.00,,,0.00,VWS V14.00,2013-04-28 15:56:00,
2013-04-28 10:57:00,83.3,29.2,25.49,South,180,3.6,9.2,14,0.00,,,0.00,VWS V14.00,2013-04-28 15:57:00,
2013-04-28 11:00:00,81.7,29.6,25.49,South,171,4.0,13.6,15,0.00,,,0.00,VWS V14.00,2013-04-28 16:00:00,
2013-04-28 11:01:00,84.4,30.0,25.49,SE,142,4.0,13.6,14,0.00,,,0.00,VWS V14.00,2013-04-28 16:01:00,
2013-04-28 11:02:00,84.9,30.5,25.49,SW,236,5.8,5.8,14,0.00,,,0.00,VWS V14.00,2013-04-28 16:02:00,
2013-04-28 11:05:00,82.8,28.8,25.52,SSW,194,6.3,8.3,14,0.00,,,0.00,VWS V14.00,2013-04-28 16:05:00,
2013-04-28 11:06:00,82.8,28.8,25.52,SSE,166,5.4,8.3,14,0.00,,,0.00,VWS V14.00,2013-04-28 16:06:00,
2013-04-28 11:07:00,81.1,29.1,25.52,South,186,6.3,8.3,15,0.00,,,0.00,VWS V14.00,2013-04-28 16:07:00,
2013-04-28 11:08:00,81.1,29.1,25.52,SSW,195,8.3,8.7,15,0.00,,,0.00,VWS V14.00,2013-04-28 16:08:00,
2013-04-28 11:09:00,81.9,29.7,25.52,SSW,196,4.9,8.7,15,0.00,,,0.00,VWS V14.00,2013-04-28 16:09:00,
2013-04-28 11:11:00,83.8,29.6,25.52,South,182,7.6,8.7,14,0.00,,,0.00,VWS V14.00,2013-04-28 16:11:00,
2013-04-28 11:12:00,83.3,29.2,25.52,South,191,6.3,8.7,14,0.00,,,0.00,VWS V14.00,2013-04-28 16:12:00,
2013-04-28 11:13:00,82.9,28.9,25.52,South,180,8.7,8.7,14,0.00,,,0.00,VWS V14.00,2013-04-28 16:13:00,
2013-04-28 11:14:00,82.4,28.5,25.52,South,172,8.3,8.7,14,0.00,,,0.00,VWS V14.00,2013-04-28 16:14:00,
2013-04-28 11:16:00,84.7,30.3,25.52,South,184,4.0,8.7,14,0.00,,,0.00,VWS V14.00,2013-04-28 16:16:00,
2013-04-28 11:17:00,85.1,30.6,25.52,South,190,5.8,8.7,14,0.00,,,0.00,VWS V14.00,2013-04-28 16:17:00,
2013-04-28 11:20:00,87.4,32.4,25.52,SE,142,2.7,5.8,14,0.00,,,0.00,VWS V14.00,2013-04-28 16:20:00,
2013-04-28 11:22:00,86.9,32.0,25.52,SSE,164,6.3,8.3,14,0.00,,,0.00,VWS V14.00,2013-04-28 16:22:00,
2013-04-28 11:23:00,85.8,31.2,25.52,South,187,6.3,8.3,14,0.00,,,0.00,VWS V14.00,2013-04-28 16:23:00,
2013-04-28 11:25:00,84.6,30.2,25.52,SW,235,3.1,8.3,14,0.00,,,0.00,VWS V14.00,2013-04-28 16:25:00,
2013-04-28 11:27:00,83.1,29.0,25.52,South,180,8.3,8.3,14,0.00,,,0.00,VWS V14.00,2013-04-28 16:27:00,
2013-04-28 11:29:00,84.4,30.0,25.52,SSW,211,4.5,8.3,14,0.00,,,0.00,VWS V14.00,2013-04-28 16:29:00,
2013-04-28 11:30:00,81.9,29.7,25.52,SSW,199,10.5,10.5,15,0.00,,,0.00,VWS V14.00,2013-04-28 16:30:00,
2013-04-28 11:32:00,83.3,29.2,25.52,South,179,10.1,11.0,14,0.00,,,0.00,VWS V14.00,2013-04-28 16:32:00,
2013-04-28 11:33:00,83.3,29.2,25.52,South,183,7.2,10.1,14,0.00,,,0.00,VWS V14.00,2013-04-28 16:33:00,
2013-04-28 11:34:00,83.7,29.5,25.58,SSW,203,5.4,10.1,14,0.00,,,0.00,VWS V14.00,2013-04-28 16:34:00,
2013-04-28 11:36:00,83.5,29.3,25.58,SW,223,5.8,10.5,14,0.00,,,0.00,VWS V14.00,2013-04-28 16:36:00,
2013-04-28 11:37:00,83.8,29.6,25.58,SSW,196,3.6,10.5,14,0.00,,,0.00,VWS V14.00,2013-04-28 16:37:00,
2013-04-28 11:38:00,83.8,29.6,25.58,SW,230,5.8,10.5,14,0.00,,,0.00,VWS V14.00,2013-04-28 16:38:00,
2013-04-28 11:39:00,83.7,29.5,25.58,SSW,211,5.8,10.5,14,0.00,,,0.00,VWS V14.00,2013-04-28 16:39:00,
2013-04-28 11:41:00,86.7,31.9,25.58,SW,236,2.7,10.5,14,0.00,,,0.00,VWS V14.00,2013-04-28 16:41:00,
2013-04-28 11:42:00,85.6,31.0,25.58,SSW,197,6.3,10.5,14,0.00,,,0.00,VWS V14.00,2013-04-28 16:42:00,
2013-04-28 11:43:00,85.6,31.0,25.58,SSW,202,8.7,10.5,14,0.00,,,0.00,VWS V14.00,2013-04-28 16:43:00,
2013-04-28 11:44:00,84.7,30.3,25.58,South,182,8.7,10.5,14,0.00,,,0.00,VWS V14.00,2013-04-28 16:44:00,
2013-04-28 11:47:00,84.7,30.3,25.58,SW,214,2.7,10.5,14,0.00,,,0.00,VWS V14.00,2013-04-28 16:47:00,
2013-04-28 11:48:00,84.6,30.2,25.58,South,176,3.6,7.6,14,0.00,,,0.00,VWS V14.00,2013-04-28 16:48:00,
2013-04-28 11:49:00,87.1,32.2,25.58,South,170,4.0,7.6,14,0.00,,,0.00,VWS V14.00,2013-04-28 16:49:00,
2013-04-28 11:50:00,87.1,32.2,25.58,SSW,195,8.3,8.3,14,0.00,,,0.00,VWS V14.00,2013-04-28 16:50:00,
2013-04-28 11:53:00,84.2,29.9,25.58,SSW,212,2.7,10.1,14,0.00,,,0.00,VWS V14.00,2013-04-28 16:53:00,
2013-04-28 11:54:00,87.1,32.2,25.58,SSW,210,3.6,10.1,14,0.00,,,0.00,VWS V14.00,2013-04-28 16:54:00,
2013-04-28 11:55:00,87.3,32.3,25.58,SSW,203,5.8,10.1,14,0.00,,,0.00,VWS V14.00,2013-04-28 16:55:00,
2013-04-28 11:56:00,87.1,32.2,25.58,SSW,208,5.8,10.1,14,0.00,,,0.00,VWS V14.00,2013-04-28 16:56:00,
2013-04-28 11:59:00,87.6,32.6,25.58,South,171,9.6,10.1,14,0.00,,,0.00,VWS V14.00,2013-04-28 16:59:00,
2013-04-28 12:00:00,87.6,32.6,25.58,South,188,5.8,10.1,14,0.00,,,0.00,VWS V14.00,2013-04-28 17:00:00,
2013-04-28 12:02:00,87.4,32.4,25.58,SSW,197,7.2,10.1,14,0.00,,,0.00,VWS V14.00,2013-04-28 17:02:00,
2013-04-28 12:04:00,87.1,32.2,25.58,SSW,209,6.3,8.1,14,0.00,,,0.00,VWS V14.00,2013-04-28 17:04:00,
2013-04-28 12:06:00,87.1,32.2,25.58,SW,219,5.8,8.1,14,0.00,,,0.00,VWS V14.00,2013-04-28 17:06:00,
2013-04-28 12:07:00,87.1,32.2,25.58,SSE,162,3.1,8.1,14,0.00,,,0.00,VWS V14.00,2013-04-28 17:07:00,
2013-04-28 12:08:00,86.9,32.0,25.58,SW,222,4.0,8.1,14,0.00,,,0.00,VWS V14.00,2013-04-28 17:08:00,
2013-04-28 12:10:00,88.9,31.7,25.58,SW,226,3.1,8.1,13,0.00,,,0.00,VWS V14.00,2013-04-28 17:10:00,
2013-04-28 12:11:00,90.3,32.9,25.58,SW,218,2.2,8.1,13,0.00,,,0.00,VWS V14.00,2013-04-28 17:11:00,
2013-04-28 12:13:00,89.2,32.0,25.58,SW,232,5.8,8.1,13,0.00,,,0.00,VWS V14.00,2013-04-28 17:13:00,
2013-04-28 12:14:00,91.0,33.4,25.58,SSW,194,6.3,8.1,13,0.00,,,0.00,VWS V14.00,2013-04-28 17:14:00,
2013-04-28 12:16:00,88.9,31.7,25.58,SSE,162,7.6,8.1,13,0.00,,,0.00,VWS V14.00,2013-04-28 17:16:00,
2013-04-28 12:18:00,90.1,32.7,25.58,South,183,5.4,6.7,13,0.00,,,0.00,VWS V14.00,2013-04-28 17:18:00,
2013-04-28 12:19:00,91.0,33.4,25.58,SSW,203,3.6,6.7,13,0.00,,,0.00,VWS V14.00,2013-04-28 17:19:00,
2013-04-28 12:21:00,93.9,33.7,25.61,WNW,293,3.6,6.7,12,0.00,,,0.00,VWS V14.00,2013-04-28 17:21:00,
2013-04-28 12:22:00,93.9,33.7,25.61,SW,222,5.4,6.7,12,0.00,,,0.00,VWS V14.00,2013-04-28 17:22:00,
2013-04-28 12:24:00,92.3,32.4,25.61,SSW,209,4.0,6.7,12,0.00,,,0.00,VWS V14.00,2013-04-28 17:24:00,
2013-04-28 12:25:00,91.6,31.9,25.61,SW,233,5.4,6.7,12,0.00,,,0.00,VWS V14.00,2013-04-28 17:25:00,
2013-04-28 12:27:00,93.4,33.2,25.61,SSE,153,3.6,6.7,12,0.00,,,0.00,VWS V14.00,2013-04-28 17:27:00,
2013-04-28 12:28:00,93.4,33.2,25.61,SSE,153,0.0,6.7,12,0.00,,,0.00,VWS V14.00,2013-04-28 17:28:00,
2013-04-28 12:29:00,92.1,32.3,25.61,SSE,153,2.7,6.7,12,0.00,,,0.00,VWS V14.00,2013-04-28 17:29:00,
2013-04-28 12:31:00,93.7,33.5,25.61,SSW,198,6.3,6.7,12,0.00,,,0.00,VWS V14.00,2013-04-28 17:31:00,
2013-04-28 12:33:00,92.1,32.3,25.61,WSW,249,3.1,5.4,12,0.00,,,0.00,VWS V14.00,2013-04-28 17:33:00,
2013-04-28 12:35:00,91.2,33.6,25.61,SSW,205,5.8,5.8,13,0.00,,,0.00,VWS V14.00,2013-04-28 17:35:00,
2013-04-28 12:36:00,90.0,32.6,25.61,SW,232,4.9,10.1,13,0.00,,,0.00,VWS V14.00,2013-04-28 17:36:00,
2013-04-28 12:38:00,93.7,33.5,25.61,NW,324,2.7,10.1,12,0.00,,,0.00,VWS V14.00,2013-04-28 17:38:00,
2013-04-28 12:39:00,94.3,33.9,25.61,NW,324,2.2,10.1,12,0.00,,,0.00,VWS V14.00,2013-04-28 17:39:00,
2013-04-28 12:40:00,94.8,34.3,25.61,NW,324,3.1,10.1,12,0.00,,,0.00,VWS V14.00,2013-04-28 17:40:00,
2013-04-28 12:43:00,94.3,33.9,25.61,South,182,3.6,10.1,12,0.00,,,0.00,VWS V14.00,2013-04-28 17:43:00,
2013-04-28 12:44:00,90.9,33.3,25.61,South,189,5.8,10.1,13,0.00,,,0.00,VWS V14.00,2013-04-28 17:44:00,
2013-04-28 12:46:00,92.3,32.4,25.61,SSW,202,3.6,10.1,12,0.00,,,0.00,VWS V14.00,2013-04-28 17:46:00,
2013-04-28 12:47:00,92.7,32.7,25.61,SW,218,0.0,10.1,12,0.00,,,0.00,VWS V14.00,2013-04-28 17:47:00,
2013-04-28 12:49:00,94.1,33.8,25.61,SW,225,2.2,4.0,12,0.00,,,0.00,VWS V14.00,2013-04-28 17:49:00,
2013-04-28 12:50:00,94.1,33.8,25.61,SW,216,8.1,8.1,12,0.00,,,0.00,VWS V14.00,2013-04-28 17:50:00,
2013-04-28 12:51:00,94.1,33.8,25.61,SW,228,3.6,8.3,12,0.00,,,0.00,VWS V14.00,2013-04-28 17:51:00,
2013-04-28 12:52:00,94.1,33.8,25.61,SW,225,2.7,8.3,12,0.00,,,0.00,VWS V14.00,2013-04-28 17:52:00,
2013-04-28 12:56:00,90.7,33.1,25.61,WSW,244,2.2,11.0,13,0.00,,,0.00,VWS V14.00,2013-04-28 17:56:00,
2013-04-28 12:57:00,91.8,32.0,25.61,SSW,201,4.0,11.0,12,0.00,,,0.00,VWS V14.00,2013-04-28 17:57:00,
2013-04-28 12:58:00,92.5,32.5,25.61,South,170,3.6,11.0,12,0.00,,,0.00,VWS V14.00,2013-04-28 17:58:00,
2013-04-28 13:01:00,93.9,33.7,25.61,SW,218,6.3,11.0,12,0.00,,,0.00,VWS V14.00,2013-04-28 18:01:00,
2013-04-28 13:02:00,92.8,32.8,25.61,South,191,8.1,8.1,12,0.00,,,0.00,VWS V14.00,2013-04-28 18:02:00,
2013-04-28 13:03:00,90.5,33.0,25.61,South,191,6.3,8.1,13,0.00,,,0.00,VWS V14.00,2013-04-28 18:03:00,
2013-04-28 13:07:00,91.9,32.1,25.63,SSW,194,4.9,9.6,12,0.00,,,0.00,VWS V14.00,2013-04-28 18:07:00,
2013-04-28 13:08:00,91.8,32.0,25.63,South,181,4.0,9.6,12,0.00,,,0.00,VWS V14.00,2013-04-28 18:08:00,
2013-04-28 13:09:00,91.4,31.7,25.63,SSW,211,2.7,9.6,12,0.00,,,0.00,VWS V14.00,2013-04-28 18:09:00,
2013-04-28 13:10:00,90.5,33.0,25.63,South,187,4.0,9.6,13,0.00,,,0.00,VWS V14.00,2013-04-28 18:10:00,
2013-04-28 13:13:00,87.1,32.2,25.63,SSW,196,8.1,9.6,14,0.00,,,0.00,VWS V14.00,2013-04-28 18:13:00,
2013-04-28 13:15:00,85.1,30.6,25.63,SSW,201,3.1,9.6,14,0.00,,,0.00,VWS V14.00,2013-04-28 18:15:00,
2013-04-28 13:16:00,86.5,31.7,25.63,South,183,4.0,9.6,14,0.00,,,0.00,VWS V14.00,2013-04-28 18:16:00,
2013-04-28 13:19:00,86.5,31.7,25.63,SSW,205,5.8,7.6,14,0.00,,,0.00,VWS V14.00,2013-04-28 18:19:00,
2013-04-28 13:21:00,85.6,31.0,25.63,South,177,8.3,13.2,14,0.00,,,0.00,VWS V14.00,2013-04-28 18:21:00,
2013-04-28 13:24:00,86.9,32.0,25.63,South,171,3.6,13.2,14,0.00,,,0.00,VWS V14.00,2013-04-28 18:24:00,
2013-04-28 13:26:00,88.2,31.2,25.63,SW,233,8.3,13.2,13,0.00,,,0.00,VWS V14.00,2013-04-28 18:26:00,
2013-04-28 13:27:00,88.3,31.3,25.63,SW,218,6.3,13.2,13,0.00,,,0.00,VWS V14.00,2013-04-28 18:27:00,
2013-04-28 13:31:00,88.7,31.6,25.63,SSW,202,4.9,13.2,13,0.00,,,0.00,VWS V14.00,2013-04-28 18:31:00,
2013-04-28 13:32:00,89.4,32.2,25.63,South,185,7.6,13.2,13,0.00,,,0.00,VWS V14.00,2013-04-28 18:32:00,
2013-04-28 13:33:00,90.1,32.7,25.63,SSE,160,8.1,8.1,13,0.00,,,0.00,VWS V14.00,2013-04-28 18:33:00,
2013-04-28 13:36:00,89.2,32.0,25.66,South,177,4.0,8.3,13,0.00,,,0.00,VWS V14.00,2013-04-28 18:36:00,
2013-04-28 13:38:00,92.7,32.7,25.66,SW,229,3.6,8.3,12,0.00,,,0.00,VWS V14.00,2013-04-28 18:38:00,
2013-04-28 13:39:00,90.9,33.3,25.66,SSW,212,6.3,8.7,13,0.00,,,0.00,VWS V14.00,2013-04-28 18:39:00,
2013-04-28 13:41:00,93.0,33.0,25.66,South,189,7.2,9.6,12,0.00,,,0.00,VWS V14.00,2013-04-28 18:41:00,
2013-04-28 13:43:00,92.8,32.8,25.66,West,262,4.0,9.6,12,0.00,,,0.00,VWS V14.00,2013-04-28 18:43:00,
2013-04-28 13:45:00,88.2,31.2,25.66,SSW,194,6.3,10.1,13,0.00,,,0.00,VWS V14.00,2013-04-28 18:45:00,
2013-04-28 13:46:00,90.5,33.0,25.66,South,185,5.8,10.1,13,0.00,,,0.00,VWS V14.00,2013-04-28 18:46:00,
2013-04-28 13:49:00,90.5,33.0,25.66,SW,227,5.4,9.2,13,0.00,,,0.00,VWS V14.00,2013-04-28 18:49:00,
2013-04-28 13:50:00,90.9,33.3,25.66,SSW,196,3.1,9.2,13,0.00,,,0.00,VWS V14.00,2013-04-28 18:50:00,
2013-04-28 13:51:00,89.6,32.3,25.66,SW,215,7.6,9.2,13,0.00,,,0.00,VWS V14.00,2013-04-28 18:51:00,
2013-04-28 13:53:00,88.3,31.3,25.66,South,179,6.7,9.2,13,0.00,,,0.00,VWS V14.00,2013-04-28 18:53:00,
2013-04-28 13:55:00,90.0,32.6,25.66,South,186,3.1,9.2,13,0.00,,,0.00,VWS V14.00,2013-04-28 18:55:00,
2013-04-28 13:56:00,89.6,32.3,25.66,SSW,200,7.6,9.2,13,0.00,,,0.00,VWS V14.00,2013-04-28 18:56:00,
2013-04-28 13:57:00,89.8,32.4,25.66,SSE,165,3.1,9.2,13,0.00,,,0.00,VWS V14.00,2013-04-28 18:57:00,
2013-04-28 13:59:00,90.7,33.1,25.66,SW,214,5.4,9.2,13,0.00,,,0.00,VWS V14.00,2013-04-28 18:59:00,
2013-04-28 14:00:00,91.2,33.6,25.66,South,190,8.1,9.2,13,0.00,,,0.00,VWS V14.00,2013-04-28 19:00:00,
2013-04-28 14:03:00,89.6,32.3,25.66,SSW,204,4.9,4.9,13,0.00,,,0.00,VWS V14.00,2013-04-28 19:03:00,
2013-04-28 14:05:00,91.2,33.6,25.66,East,94,0.0,5.8,13,0.00,,,0.00,VWS V14.00,2013-04-28 19:05:00,
2013-04-28 14:06:00,92.3,32.4,25.66,South,180,3.1,5.8,12,0.00,,,0.00,VWS V14.00,2013-04-28 19:06:00,
2013-04-28 14:08:00,93.0,33.0,25.66,South,175,0.0,8.3,12,0.00,,,0.00,VWS V14.00,2013-04-28 19:08:00,
2013-04-28 14:10:00,92.7,32.7,25.66,South,179,8.3,8.3,12,0.00,,,0.00,VWS V14.00,2013-04-28 19:10:00,
2013-04-28 14:11:00,91.6,31.9,25.66,South,187,3.6,8.3,12,0.00,,,0.00,VWS V14.00,2013-04-28 19:11:00,
2013-04-28 14:14:00,91.4,31.7,25.66,SSW,192,8.3,10.1,12,0.00,,,0.00,VWS V14.00,2013-04-28 19:14:00,
2013-04-28 14:15:00,90.3,32.9,25.66,SSW,204,5.8,10.1,13,0.00,,,0.00,VWS V14.00,2013-04-28 19:15:00,
2013-04-28 14:16:00,90.9,33.3,25.66,SW,218,5.8,10.1,13,0.00,,,0.00,VWS V14.00,2013-04-28 19:16:00,
2013-04-28 14:17:00,90.5,33.0,25.66,SSW,198,6.3,10.1,13,0.00,,,0.00,VWS V14.00,2013-04-28 19:17:00,
2013-04-28 14:20:00,91.6,31.9,25.66,SW,225,4.0,7.6,12,0.00,,,0.00,VWS V14.00,2013-04-28 19:20:00,
2013-04-28 14:21:00,92.1,32.3,25.66,South,174,3.1,7.6,12,0.00,,,0.00,VWS V14.00,2013-04-28 19:21:00,
2013-04-28 14:22:00,90.7,33.1,25.66,South,182,5.4,7.6,13,0.00,,,0.00,VWS V14.00,2013-04-28 19:22:00,
2013-04-28 14:23:00,91.8,32.0,25.66,SSW,204,4.0,7.6,12,0.00,,,0.00,VWS V14.00,2013-04-28 19:23:00,
2013-04-28 14:24:00,91.8,32.0,25.66,SW,215,5.4,7.6,12,0.00,,,0.00,VWS V14.00,2013-04-28 19:24:00,
2013-04-28 14:25:00,91.8,32.0,25.66,SSW,201,4.0,7.6,12,0.00,,,0.00,VWS V14.00,2013-04-28 19:25:00,
2013-04-28 14:26:00,92.5,32.5,25.66,SSW,204,5.4,8.1,12,0.00,,,0.00,VWS V14.00,2013-04-28 19:26:00,
2013-04-28 14:28:00,90.9,33.3,25.66,South,170,5.8,8.3,13,0.00,,,0.00,VWS V14.00,2013-04-28 19:28:00,
2013-04-28 14:29:00,90.3,32.9,25.66,SSW,201,4.9,8.3,13,0.00,,,0.00,VWS V14.00,2013-04-28 19:29:00,
2013-04-28 14:30:00,91.8,32.0,25.66,SE,140,3.6,8.3,12,0.00,,,0.00,VWS V14.00,2013-04-28 19:30:00,
2013-04-28 14:32:00,91.8,32.0,25.66,South,175,8.1,8.3,12,0.00,,,0.00,VWS V14.00,2013-04-28 19:32:00,
2013-04-28 14:33:00,90.0,32.6,25.66,SSW,194,8.3,10.1,13,0.00,,,0.00,VWS V14.00,2013-04-28 19:33:00,
2013-04-28 14:34:00,90.0,32.6,25.66,SE,141,5.8,10.1,13,0.00,,,0.00,VWS V14.00,2013-04-28 19:34:00,
2013-04-28 14:35:00,91.0,33.4,25.69,SSW,208,5.8,10.1,13,0.00,,,0.00,VWS V14.00,2013-04-28 19:35:00,
2013-04-28 14:37:00,90.1,32.7,25.69,South,182,6.3,11.0,13,0.00,,,0.00,VWS V14.00,2013-04-28 19:37:00,
2013-04-28 14:38:00,88.9,31.7,25.69,South,176,8.1,11.0,13,0.00,,,0.00,VWS V14.00,2013-04-28 19:38:00,
2013-04-28 14:40:00,90.3,32.9,25.69,South,184,5.4,11.0,13,0.00,,,0.00,VWS V14.00,2013-04-28 19:40:00,
2013-04-28 14:42:00,91.6,31.9,25.69,SSE,147,4.0,11.0,12,0.00,,,0.00,VWS V14.00,2013-04-28 19:42:00,
2013-04-28 14:44:00,92.1,32.3,25.69,South,179,5.8,11.0,12,0.00,,,0.00,VWS V14.00,2013-04-28 19:44:00,
2013-04-28 14:45:00,92.1,32.3,25.69,South,187,8.3,11.0,12,0.00,,,0.00,VWS V14.00,2013-04-28 19:45:00,
2013-04-28 14:48:00,90.7,33.1,25.69,SSW,195,6.3,10.1,13,0.00,,,0.00,VWS V14.00,2013-04-28 19:48:00,
2013-04-28 14:49:00,90.0,32.6,25.69,South,172,3.1,10.1,13,0.00,,,0.00,VWS V14.00,2013-04-28 19:49:00,
2013-04-28 14:50:00,90.0,32.6,25.69,SSE,164,4.0,10.1,13,0.00,,,0.00,VWS V14.00,2013-04-28 19:50:00,
2013-04-28 14:51:00,91.8,32.0,25.69,SE,134,2.7,10.1,12,0.00,,,0.00,VWS V14.00,2013-04-28 19:51:00,
2013-04-28 14:53:00,93.2,33.1,25.69,South,179,0.0,10.1,12,0.00,,,0.00,VWS V14.00,2013-04-28 19:53:00,
2013-04-28 14:55:00,93.0,33.0,25.69,SSW,209,9.6,10.1,12,0.00,,,0.00,VWS V14.00,2013-04-28 19:55:00,
2013-04-28 14:56:00,89.6,32.3,25.69,South,189,8.1,12.3,13,0.00,,,0.00,VWS V14.00,2013-04-28 19:56:00,
2013-04-28 14:58:00,91.0,33.4,25.69,SSW,209,3.6,12.3,13,0.00,,,0.00,VWS V14.00,2013-04-28 19:58:00,
2013-04-28 15:00:00,90.1,32.7,25.69,South,171,5.8,12.3,13,0.00,,,0.00,VWS V14.00,2013-04-28 20:00:00,
2013-04-28 15:01:00,91.2,33.6,25.69,SSW,202,7.2,12.3,13,0.00,,,0.00,VWS V14.00,2013-04-28 20:01:00,
2013-04-28 15:02:00,91.2,33.6,25.69,South,174,5.8,5.8,13,0.00,,,0.00,VWS V14.00,2013-04-28 20:02:00,
2013-04-28 15:04:00,92.8,32.8,25.66,SSW,205,6.3,6.3,12,0.00,,,0.00,VWS V14.00,2013-04-28 20:04:00,
2013-04-28 15:06:00,91.6,31.9,25.66,SSW,211,5.8,8.3,12,0.00,,,0.00,VWS V14.00,2013-04-28 20:06:00,
2013-04-28 15:08:00,90.5,33.0,25.66,South,185,3.1,11.0,13,0.00,,,0.00,VWS V14.00,2013-04-28 20:08:00,
2013-04-28 15:09:00,91.4,31.7,25.66,South,176,4.0,11.0,12,0.00,,,0.00,VWS V14.00,2013-04-28 20:09:00,
2013-04-28 15:10:00,91.6,31.9,25.66,SSE,158,5.8,11.0,12,0.00,,,0.00,VWS V14.00,2013-04-28 20:10:00,
2013-04-28 15:11:00,91.0,33.4,25.66,SSW,192,8.1,11.0,13,0.00,,,0.00,VWS V14.00,2013-04-28 20:11:00,
2013-04-28 15:12:00,91.6,31.9,25.66,SSE,159,7.6,11.0,12,0.00,,,0.00,VWS V14.00,2013-04-28 20:12:00,
2013-04-28 15:13:00,91.9,32.1,25.66,South,181,7.6,11.0,12,0.00,,,0.00,VWS V14.00,2013-04-28 20:13:00,
2013-04-28 15:15:00,91.6,31.9,25.66,SSW,198,2.7,11.0,12,0.00,,,0.00,VWS V14.00,2013-04-28 20:15:00,
2013-04-28 15:17:00,92.3,32.4,25.66,South,180,2.7,11.0,12,0.00,,,0.00,VWS V14.00,2013-04-28 20:17:00,
2013-04-28 15:18:00,91.8,32.0,25.66,SSW,204,4.0,8.7,12,0.00,,,0.00,VWS V14.00,2013-04-28 20:18:00,
2013-04-28 15:20:00,93.7,33.5,25.66,South,179,2.7,8.7,12,0.00,,,0.00,VWS V14.00,2013-04-28 20:20:00,
2013-04-28 15:21:00,92.8,32.8,25.66,South,182,5.8,8.7,12,0.00,,,0.00,VWS V14.00,2013-04-28 20:21:00,
2013-04-28 15:23:00,93.4,33.2,25.66,South,173,5.4,8.7,12,0.00,,,0.00,VWS V14.00,2013-04-28 20:23:00,
2013-04-28 15:24:00,91.4,31.7,25.66,South,183,8.1,8.7,12,0.00,,,0.00,VWS V14.00,2013-04-28 20:24:00,
2013-04-28 15:25:00,89.8,32.4,25.66,South,186,3.6,8.7,13,0.00,,,0.00,VWS V14.00,2013-04-28 20:25:00,
2013-04-28 15:26:00,89.8,32.4,25.66,South,190,5.8,8.7,13,0.00,,,0.00,VWS V14.00,2013-04-28 20:26:00,
2013-04-28 15:28:00,89.2,32.0,25.66,SSW,207,6.3,8.7,13,0.00,,,0.00,VWS V14.00,2013-04-28 20:28:00,
2013-04-28 15:29:00,90.5,33.0,25.66,SSW,199,5.8,8.7,13,0.00,,,0.00,VWS V14.00,2013-04-28 20:29:00,
2013-04-28 15:30:00,90.1,32.7,25.66,SSW,192,8.3,10.5,13,0.00,,,0.00,VWS V14.00,2013-04-28 20:30:00,
2013-04-28 15:31:00,91.4,31.7,25.66,SSW,196,6.3,10.5,12,0.00,,,0.00,VWS V14.00,2013-04-28 20:31:00,
2013-04-28 15:34:00,92.5,32.5,25.66,East,88,3.1,5.4,12,0.00,,,0.00,VWS V14.00,2013-04-28 20:34:00,
2013-04-28 15:35:00,92.3,32.4,25.66,NE,34,3.1,5.8,12,0.00,,,0.00,VWS V14.00,2013-04-28 20:35:00,
2013-04-28 15:37:00,91.2,33.6,25.66,NNE,31,7.2,8.7,13,0.00,,,0.00,VWS V14.00,2013-04-28 20:37:00,
2013-04-28 15:38:00,93.9,33.7,25.66,NE,35,2.7,8.7,12,0.00,,,0.00,VWS V14.00,2013-04-28 20:38:00,
2013-04-28 15:40:00,95.4,34.8,25.66,South,174,5.8,8.7,12,0.00,,,0.00,VWS V14.00,2013-04-28 20:40:00,
2013-04-28 15:41:00,92.7,32.7,25.66,South,190,6.3,10.5,12,0.00,,,0.00,VWS V14.00,2013-04-28 20:41:00,
2013-04-28 15:42:00,95.4,34.8,25.66,South,184,4.9,10.5,12,0.00,,,0.00,VWS V14.00,2013-04-28 20:42:00,
2013-04-28 15:44:00,97.2,34.0,25.66,South,178,5.8,10.5,11,0.00,,,0.00,VWS V14.00,2013-04-28 20:44:00,
2013-04-28 15:45:00,95.4,34.8,25.66,South,187,11.4,11.4,12,0.00,,,0.00,VWS V14.00,2013-04-28 20:45:00,
2013-04-28 15:46:00,93.4,33.2,25.66,South,182,8.1,11.4,12,0.00,,,0.00,VWS V14.00,2013-04-28 20:46:00,
2013-04-28 15:47:00,93.4,33.2,25.66,SSW,204,8.7,13.2,12,0.00,,,0.00,VWS V14.00,2013-04-28 20:47:00,
2013-04-28 15:49:00,90.3,32.9,25.66,South,177,8.3,13.2,13,0.00,,,0.00,VWS V14.00,2013-04-28 20:49:00,
2013-04-28 15:51:00,92.3,32.4,25.66,South,179,5.8,13.2,12,0.00,,,0.00,VWS V14.00,2013-04-28 20:51:00,
2013-04-28 15:53:00,93.7,33.5,25.66,South,186,0.0,13.2,12,0.00,,,0.00,VWS V14.00,2013-04-28 20:53:00,
2013-04-28 15:54:00,95.5,34.9,25.66,SW,224,2.7,13.2,12,0.00,,,0.00,VWS V14.00,2013-04-28 20:54:00,
2013-04-28 15:56:00,97.2,34.0,25.66,SW,224,0.0,13.2,11,0.00,,,0.00,VWS V14.00,2013-04-28 20:56:00,
2013-04-28 15:59:00,93.4,33.2,25.66,South,172,8.7,13.2,12,0.00,,,0.00,VWS V14.00,2013-04-28 20:59:00,
2013-04-28 16:01:00,95.5,34.9,25.66,South,183,2.7,13.2,12,0.00,,,0.00,VWS V14.00,2013-04-28 21:01:00,
2013-04-28 16:02:00,93.6,33.4,25.66,South,185,8.1,13.2,12,0.00,,,0.00,VWS V14.00,2013-04-28 21:02:00,
2013-04-28 16:04:00,94.8,34.3,25.69,South,182,5.4,8.3,12,0.00,,,0.00,VWS V14.00,2013-04-28 21:04:00,
2013-04-28 16:05:00,95.4,34.8,25.69,SSE,159,4.0,8.3,12,0.00,,,0.00,VWS V14.00,2013-04-28 21:05:00,
2013-04-28 16:06:00,94.1,33.8,25.69,SSW,193,8.1,8.3,12,0.00,,,0.00,VWS V14.00,2013-04-28 21:06:00,
2013-04-28 16:07:00,93.7,33.5,25.69,South,188,8.3,8.3,12,0.00,,,0.00,VWS V14.00,2013-04-28 21:07:00,
2013-04-28 16:09:00,93.7,33.5,25.69,SSE,150,4.0,8.3,12,0.00,,,0.00,VWS V14.00,2013-04-28 21:09:00,
2013-04-28 16:10:00,94.5,34.1,25.69,SSE,149,2.2,8.3,12,0.00,,,0.00,VWS V14.00,2013-04-28 21:10:00,
2013-04-28 16:11:00,95.5,34.9,25.69,South,177,3.6,8.3,12,0.00,,,0.00,VWS V14.00,2013-04-28 21:11:00,
2013-04-28 16:12:00,94.8,34.3,25.69,South,173,6.3,8.3,12,0.00,,,0.00,VWS V14.00,2013-04-28 21:12:00,
2013-04-28 16:13:00,94.3,33.9,25.69,South,191,5.4,8.3,12,0.00,,,0.00,VWS V14.00,2013-04-28 21:13:00,
2013-04-28 16:15:00,94.8,34.3,25.69,South,170,6.3,8.7,12,0.00,,,0.00,VWS V14.00,2013-04-28 21:15:00,
2013-04-28 16:16:00,94.8,34.3,25.69,SW,216,10.1,10.1,12,0.00,,,0.00,VWS V14.00,2013-04-28 21:16:00,
2013-04-28 16:18:00,93.4,33.2,25.69,South,183,6.3,8.1,12,0.00,,,0.00,VWS V14.00,2013-04-28 21:18:00,
2013-04-28 16:20:00,90.9,33.3,25.66,SSW,206,8.3,11.0,13,0.00,,,0.00,VWS V14.00,2013-04-28 21:20:00,
2013-04-28 16:21:00,92.3,32.4,25.66,SSE,156,5.8,11.0,12,0.00,,,0.00,VWS V14.00,2013-04-28 21:21:00,
2013-04-28 16:22:00,92.7,32.7,25.66,South,179,4.0,11.0,12,0.00,,,0.00,VWS V14.00,2013-04-28 21:22:00,
2013-04-28 16:23:00,93.0,33.0,25.66,South,182,6.3,11.0,12,0.00,,,0.00,VWS V14.00,2013-04-28 21:23:00,
2013-04-28 16:24:00,91.0,33.4,25.66,South,174,8.7,11.0,13,0.00,,,0.00,VWS V14.00,2013-04-28 21:24:00,
2013-04-28 16:25:00,91.0,33.4,25.66,SSW,208,8.1,11.0,13,0.00,,,0.00,VWS V14.00,2013-04-28 21:25:00,
2013-04-28 16:28:00,93.2,33.1,25.66,South,189,5.8,11.0,12,0.00,,,0.00,VWS V14.00,2013-04-28 21:28:00,
2013-04-28 16:29:00,93.2,33.1,25.66,South,191,8.1,11.0,12,0.00,,,0.00,VWS V14.00,2013-04-28 21:29:00,
2013-04-28 16:31:00,90.9,33.3,25.66,South,181,6.3,11.0,13,0.00,,,0.00,VWS V14.00,2013-04-28 21:31:00,
2013-04-28 16:33:00,92.7,32.7,25.66,South,172,8.3,10.5,12,0.00,,,0.00,VWS V14.00,2013-04-28 21:33:00,
2013-04-28 16:34:00,91.8,32.0,25.66,SSE,153,4.0,10.5,12,0.00,,,0.00,VWS V14.00,2013-04-28 21:34:00,
2013-04-28 16:35:00,91.2,33.6,25.66,South,174,8.3,10.5,13,0.00,,,0.00,VWS V14.00,2013-04-28 21:35:00,
2013-04-28 16:36:00,92.1,32.3,25.66,SSE,153,3.6,10.5,12,0.00,,,0.00,VWS V14.00,2013-04-28 21:36:00,
2013-04-28 16:37:00,92.3,32.4,25.66,South,185,3.6,10.5,12,0.00,,,0.00,VWS V14.00,2013-04-28 21:37:00,
2013-04-28 16:39:00,90.7,33.1,25.66,SW,230,8.1,11.0,13,0.00,,,0.00,VWS V14.00,2013-04-28 21:39:00,
2013-04-28 16:40:00,91.9,32.1,25.66,SSE,167,7.6,11.0,12,0.00,,,0.00,VWS V14.00,2013-04-28 21:40:00,
2013-04-28 16:41:00,91.2,33.6,25.66,South,182,8.1,11.0,13,0.00,,,0.00,VWS V14.00,2013-04-28 21:41:00,
2013-04-28 16:42:00,90.3,32.9,25.66,SSW,192,8.3,11.0,13,0.00,,,0.00,VWS V14.00,2013-04-28 21:42:00,
2013-04-28 16:44:00,90.9,33.3,25.66,SW,231,11.0,11.0,13,0.00,,,0.00,VWS V14.00,2013-04-28 21:44:00,
2013-04-28 16:45:00,88.3,31.3,25.66,SW,223,7.6,15.0,13,0.00,,,0.00,VWS V14.00,2013-04-28 21:45:00,
2013-04-28 16:46:00,89.1,31.9,25.66,SSE,161,7.6,15.0,13,0.00,,,0.00,VWS V14.00,2013-04-28 21:46:00,
2013-04-28 16:47:00,90.5,33.0,25.66,SSE,164,7.2,15.0,13,0.00,,,0.00,VWS V14.00,2013-04-28 21:47:00,
2013-04-28 16:48:00,91.6,31.9,25.66,SSW,206,5.4,8.1,12,0.00,,,0.00,VWS V14.00,2013-04-28 21:48:00,
2013-04-28 16:50:00,92.8,32.8,25.66,SSW,199,4.0,8.1,12,0.00,,,0.00,VWS V14.00,2013-04-28 21:50:00,
2013-04-28 16:51:00,93.2,33.1,25.66,South,177,5.8,8.1,12,0.00,,,0.00,VWS V14.00,2013-04-28 21:51:00,
2013-04-28 16:52:00,94.6,34.2,25.66,South,186,2.7,8.1,12,0.00,,,0.00,VWS V14.00,2013-04-28 21:52:00,
2013-04-28 16:53:00,95.4,34.8,25.66,South,186,0.0,8.1,12,0.00,,,0.00,VWS V14.00,2013-04-28 21:53:00,
2013-04-28 16:54:00,95.9,35.2,25.66,South,183,4.0,8.1,12,0.00,,,0.00,VWS V14.00,2013-04-28 21:54:00,
2013-04-28 16:55:00,95.7,35.0,25.66,South,188,5.4,8.1,12,0.00,,,0.00,VWS V14.00,2013-04-28 21:55:00,
2013-04-28 16:56:00,95.5,34.9,25.66,SSE,156,4.9,8.1,12,0.00,,,0.00,VWS V14.00,2013-04-28 21:56:00,
2013-04-28 16:58:00,95.9,35.2,25.66,South,178,2.7,8.1,12,0.00,,,0.00,VWS V14.00,2013-04-28 21:58:00,
2013-04-28 16:59:00,95.7,35.0,25.66,SE,133,8.1,8.1,12,0.00,,,0.00,VWS V14.00,2013-04-28 21:59:00,
2013-04-28 17:00:00,95.4,34.8,25.66,South,183,6.3,8.1,12,0.00,,,0.00,VWS V14.00,2013-04-28 22:00:00,
2013-04-28 17:03:00,91.9,32.1,25.66,SSE,155,3.6,8.1,12,0.00,,,0.00,VWS V14.00,2013-04-28 22:03:00,
2013-04-28 17:04:00,91.0,33.4,25.66,SE,143,8.1,10.1,13,0.00,,,0.00,VWS V14.00,2013-04-28 22:04:00,
2013-04-28 17:05:00,92.7,32.7,25.66,SE,134,2.7,10.1,12,0.00,,,0.00,VWS V14.00,2013-04-28 22:05:00,
2013-04-28 17:06:00,91.0,33.4,25.66,South,175,8.7,10.1,13,0.00,,,0.00,VWS V14.00,2013-04-28 22:06:00,
2013-04-28 17:08:00,92.8,32.8,25.66,SSW,192,2.2,10.1,12,0.00,,,0.00,VWS V14.00,2013-04-28 22:08:00,
2013-04-28 17:09:00,92.8,32.8,25.66,SSW,205,3.1,10.1,12,0.00,,,0.00,VWS V14.00,2013-04-28 22:09:00,
2013-04-28 17:10:00,93.9,33.7,25.66,South,181,4.0,10.1,12,0.00,,,0.00,VWS V14.00,2013-04-28 22:10:00,
2013-04-28 17:11:00,93.7,33.5,25.66,South,182,6.3,10.1,12,0.00,,,0.00,VWS V14.00,2013-04-28 22:11:00,
2013-04-28 17:13:00,93.6,33.4,25.66,SSW,203,4.0,10.1,12,0.00,,,0.00,VWS V14.00,2013-04-28 22:13:00,
2013-04-28 17:14:00,90.9,33.3,25.66,SSW,213,6.3,10.1,13,0.00,,,0.00,VWS V14.00,2013-04-28 22:14:00,
2013-04-28 17:15:00,90.9,33.3,25.66,SW,216,6.3,10.1,13,0.00,,,0.00,VWS V14.00,2013-04-28 22:15:00,
2013-04-28 17:16:00,90.5,33.0,25.66,SSW,200,8.7,10.1,13,0.00,,,0.00,VWS V14.00,2013-04-28 22:16:00,
2013-04-28 17:17:00,88.9,31.7,25.66,SSW,199,5.8,11.4,13,0.00,,,0.00,VWS V14.00,2013-04-28 22:17:00,
2013-04-28 17:18:00,91.8,32.0,25.66,South,177,4.0,5.8,12,0.00,,,0.00,VWS V14.00,2013-04-28 22:18:00,
2013-04-28 17:20:00,93.0,33.0,25.66,South,172,5.4,5.8,12,0.00,,,0.00,VWS V14.00,2013-04-28 22:20:00,
2013-04-28 17:21:00,93.2,33.1,25.66,SSW,197,4.0,5.8,12,0.00,,,0.00,VWS V14.00,2013-04-28 22:21:00,
2013-04-28 17:22:00,93.6,33.4,25.66,South,187,3.6,5.8,12,0.00,,,0.00,VWS V14.00,2013-04-28 22:22:00,
2013-04-28 17:23:00,93.4,33.2,25.66,SSE,159,5.4,6.3,12,0.00,,,0.00,VWS V14.00,2013-04-28 22:23:00,
2013-04-28 17:25:00,92.1,32.3,25.66,SSW,198,2.7,6.3,12,0.00,,,0.00,VWS V14.00,2013-04-28 22:25:00,
2013-04-28 17:28:00,92.7,32.7,25.66,SE,140,3.6,6.3,12,0.00,,,0.00,VWS V14.00,2013-04-28 22:28:00,
2013-04-28 17:29:00,93.0,33.0,25.66,SSE,150,6.3,6.3,12,0.00,,,0.00,VWS V14.00,2013-04-28 22:29:00,
2013-04-28 17:31:00,92.3,32.4,25.66,South,172,5.4,6.3,12,0.00,,,0.00,VWS V14.00,2013-04-28 22:31:00,
2013-04-28 17:33:00,92.8,32.8,25.66,South,179,2.2,5.4,12,0.00,,,0.00,VWS V14.00,2013-04-28 22:33:00,
2013-04-28 17:34:00,93.7,33.5,25.66,ESE,116,2.2,5.4,12,0.00,,,0.00,VWS V14.00,2013-04-28 22:34:00,
2013-04-28 17:35:00,93.4,33.2,25.66,ENE,66,3.1,5.4,12,0.00,,,0.00,VWS V14.00,2013-04-28 22:35:00,
2013-04-28 17:36:00,93.4,33.2,25.66,ENE,66,2.7,5.4,12,0.00,,,0.00,VWS V14.00,2013-04-28 22:36:00,
2013-04-28 17:40:00,93.9,33.7,25.66,South,169,5.4,5.4,12,0.00,,,0.00,VWS V14.00,2013-04-28 22:40:00,
2013-04-28 17:41:00,91.9,32.1,25.66,SSW,210,8.3,9.2,12,0.00,,,0.00,VWS V14.00,2013-04-28 22:41:00,
2013-04-28 17:46:00,93.7,33.5,25.66,South,178,4.0,9.2,12,0.00,,,0.00,VWS V14.00,2013-04-28 22:46:00,
2013-04-28 17:47:00,93.6,33.4,25.66,South,187,7.2,9.2,12,0.00,,,0.00,VWS V14.00,2013-04-28 22:47:00,
2013-04-28 17:48:00,91.6,31.9,25.66,SSW,206,7.6,10.1,12,0.00,,,0.00,VWS V14.00,2013-04-28 22:48:00,
2013-04-28 17:51:00,93.0,33.0,25.66,South,185,0.0,10.1,12,0.00,,,0.00,VWS V14.00,2013-04-28 22:51:00,
2013-04-28 17:52:00,93.7,33.5,25.66,South,185,0.0,10.1,12,0.00,,,0.00,VWS V14.00,2013-04-28 22:52:00,
2013-04-28 17:53:00,92.7,32.7,25.66,South,170,3.6,10.1,12,0.00,,,0.00,VWS V14.00,2013-04-28 22:53:00,
2013-04-28 17:57:00,92.7,32.7,25.66,South,171,4.9,10.1,12,0.00,,,0.00,VWS V14.00,2013-04-28 22:57:00,
2013-04-28 17:58:00,92.3,32.4,25.66,SE,141,5.8,10.1,12,0.00,,,0.00,VWS V14.00,2013-04-28 22:58:00,
2013-04-28 17:59:00,91.2,33.6,25.66,South,179,7.6,10.1,13,0.00,,,0.00,VWS V14.00,2013-04-28 22:59:00,
2013-04-28 18:02:00,91.4,31.7,25.66,SSW,196,4.0,10.1,12,0.00,,,0.00,VWS V14.00,2013-04-28 23:02:00,
2013-04-28 18:03:00,91.4,31.7,25.66,South,182,8.3,8.3,12,0.00,,,0.00,VWS V14.00,2013-04-28 23:03:00,
2013-04-28 18:04:00,90.9,33.3,25.63,SSE,167,2.7,8.3,13,0.00,,,0.00,VWS V14.00,2013-04-28 23:04:00,
2013-04-28 18:07:00,91.9,32.1,25.63,SSE,164,2.2,8.3,12,0.00,,,0.00,VWS V14.00,2013-04-28 23:07:00,
2013-04-28 18:08:00,91.9,32.1,25.63,SSE,164,3.1,8.3,12,0.00,,,0.00,VWS V14.00,2013-04-28 23:08:00,
2013-04-28 18:09:00,92.1,32.3,25.63,SSE,160,0.0,8.3,12,0.00,,,0.00,VWS V14.00,2013-04-28 23:09:00,
2013-04-28 18:10:00,92.3,32.4,25.63,ENE,76,0.0,8.3,12,0.00,,,0.00,VWS V14.00,2013-04-28 23:10:00,
2013-04-28 18:13:00,92.1,32.3,25.63,ENE,76,0.0,8.3,12,0.00,,,0.00,VWS V14.00,2013-04-28 23:13:00,
2013-04-28 18:16:00,92.3,32.4,25.63,SSW,193,5.4,8.3,12,0.00,,,0.00,VWS V14.00,2013-04-28 23:16:00,
2013-04-28 18:19:00,90.9,33.3,25.63,South,189,4.0,6.3,13,0.00,,,0.00,VWS V14.00,2013-04-28 23:19:00,
2013-04-28 18:20:00,89.1,31.9,25.63,SSW,197,8.3,8.3,13,0.00,,,0.00,VWS V14.00,2013-04-28 23:20:00,
2013-04-28 18:22:00,90.0,32.6,25.63,SSE,168,4.0,8.7,13,0.00,,,0.00,VWS V14.00,2013-04-28 23:22:00,
2013-04-28 18:23:00,90.1,32.7,25.63,South,183,2.2,8.7,13,0.00,,,0.00,VWS V14.00,2013-04-28 23:23:00,
2013-04-28 18:24:00,89.8,32.4,25.63,South,175,2.2,8.7,13,0.00,,,0.00,VWS V14.00,2013-04-28 23:24:00,
2013-04-28 18:25:00,90.3,32.9,25.63,South,178,2.2,8.7,13,0.00,,,0.00,VWS V14.00,2013-04-28 23:25:00,
2013-04-28 18:27:00,91.0,33.4,25.63,SSW,193,3.6,8.7,13,0.00,,,0.00,VWS V14.00,2013-04-28 23:27:00,
2013-04-28 18:29:00,91.2,33.6,25.63,ESE,122,2.7,8.7,13,0.00,,,0.00,VWS V14.00,2013-04-28 23:29:00,
2013-04-28 18:30:00,91.4,31.7,25.63,South,174,0.0,8.7,12,0.00,,,0.00,VWS V14.00,2013-04-28 23:30:00,
2013-04-28 18:31:00,91.4,31.7,25.63,South,174,0.0,8.7,12,0.00,,,0.00,VWS V14.00,2013-04-28 23:31:00,
2013-04-28 18:34:00,90.9,33.3,25.63,SSE,163,4.0,4.0,13,0.00,,,0.00,VWS V14.00,2013-04-28 23:34:00,
2013-04-28 18:35:00,90.3,32.9,25.63,South,176,7.6,7.6,13,0.00,,,0.00,VWS V14.00,2013-04-28 23:35:00,
2013-04-28 18:36:00,89.6,32.3,25.63,South,174,4.9,7.6,13,0.00,,,0.00,VWS V14.00,2013-04-28 23:36:00,
2013-04-28 18:40:00,89.4,32.2,25.63,South,188,4.9,7.6,13,0.00,,,0.00,VWS V14.00,2013-04-28 23:40:00,
2013-04-28 18:41:00,89.1,31.9,25.63,SSE,167,3.1,7.6,13,0.00,,,0.00,VWS V14.00,2013-04-28 23:41:00,
2013-04-28 18:42:00,88.5,31.5,25.63,SSW,195,8.1,8.1,13,0.00,,,0.00,VWS V14.00,2013-04-28 23:42:00,
2013-04-28 18:45:00,88.3,31.3,25.63,South,176,4.9,8.7,13,0.00,,,0.00,VWS V14.00,2013-04-28 23:45:00,
2013-04-28 18:46:00,88.2,31.2,25.63,South,183,3.6,8.7,13,0.00,,,0.00,VWS V14.00,2013-04-28 23:46:00,
2013-04-28 18:47:00,88.5,31.5,25.63,South,173,3.6,8.7,13,0.00,,,0.00,VWS V14.00,2013-04-28 23:47:00,
2013-04-28 18:50:00,88.7,31.6,25.63,SSE,161,3.1,4.9,13,0.00,,,0.00,VWS V14.00,2013-04-28 23:50:00,
2013-04-28 18:52:00,87.1,32.2,25.63,SSW,202,7.6,9.2,14,0.00,,,0.00,VWS V14.00,2013-04-28 23:52:00,
2013-04-28 18:53:00,86.5,31.7,25.63,SSW,195,8.3,9.2,14,0.00,,,0.00,VWS V14.00,2013-04-28 23:53:00,
2013-04-28 18:55:00,87.6,32.6,25.63,South,177,3.1,9.2,14,0.00,,,0.00,VWS V14.00,2013-04-28 23:55:00,
2013-04-28 18:57:00,88.3,31.3,25.63,SSW,200,3.6,9.2,13,0.00,,,0.00,VWS V14.00,2013-04-28 23:57:00,
2013-04-28 18:58:00,88.3,31.3,25.63,SSW,200,3.1,9.2,13,0.00,,,0.00,VWS V14.00,2013-04-28 23:58:00,
2013-04-28 19:01:00,87.8,30.9,25.63,SSW,192,2.7,9.2,13,0.00,,,0.00,VWS V14.00,2013-04-29 00:01:00,
2013-04-28 19:02:00,87.6,32.6,25.63,SSE,162,3.6,5.4,14,0.00,,,0.00,VWS V14.00,2013-04-29 00:02:00,
2013-04-28 19:03:00,87.3,32.3,25.63,South,182,5.4,5.4,14,0.00,,,0.00,VWS V14.00,2013-04-29 00:03:00,
2013-04-28 19:06:00,87.4,32.4,25.63,South,179,5.4,5.4,14,0.00,,,0.00,VWS V14.00,2013-04-29 00:06:00,
2013-04-28 19:07:00,87.3,32.3,25.63,SSE,168,3.1,5.4,14,0.00,,,0.00,VWS V14.00,2013-04-29 00:07:00,
2013-04-28 19:08:00,87.3,32.3,25.63,SSE,163,5.8,5.8,14,0.00,,,0.00,VWS V14.00,2013-04-29 00:08:00,
2013-04-28 19:10:00,86.5,31.7,25.63,South,179,3.6,8.3,14,0.00,,,0.00,VWS V14.00,2013-04-29 00:10:00,
2013-04-28 19:11:00,86.5,31.7,25.63,SE,133,4.0,8.3,14,0.00,,,0.00,VWS V14.00,2013-04-29 00:11:00,
2013-04-28 19:13:00,86.4,31.6,25.63,SSW,198,2.7,8.3,14,0.00,,,0.00,VWS V14.00,2013-04-29 00:13:00,
2013-04-28 19:15:00,86.5,31.7,25.63,SSW,197,2.7,8.3,14,0.00,,,0.00,VWS V14.00,2013-04-29 00:15:00,
2013-04-28 19:16:00,86.5,31.7,25.63,SE,124,2.7,8.3,14,0.00,,,0.00,VWS V14.00,2013-04-29 00:16:00,
2013-04-28 19:18:00,86.7,31.9,25.63,SE,133,0.0,2.7,14,0.00,,,0.00,VWS V14.00,2013-04-29 00:18:00,
2013-04-28 19:20:00,86.4,31.6,25.61,SSW,207,0.0,4.9,14,0.00,,,0.00,VWS V14.00,2013-04-29 00:20:00,
2013-04-28 19:21:00,85.8,31.2,25.61,SSW,205,4.0,4.9,14,0.00,,,0.00,VWS V14.00,2013-04-29 00:21:00,
2013-04-28 19:22:00,86.4,31.6,25.61,South,178,4.0,4.9,14,0.00,,,0.00,VWS V14.00,2013-04-29 00:22:00,
2013-04-28 19:23:00,85.3,30.7,25.61,South,171,4.0,7.6,14,0.00,,,0.00,VWS V14.00,2013-04-29 00:23:00,
2013-04-28 19:26:00,85.5,30.9,25.61,South,179,2.7,8.1,14,0.00,,,0.00,VWS V14.00,2013-04-29 00:26:00,
2013-04-28 19:27:00,85.3,30.7,25.61,South,178,2.7,8.1,14,0.00,,,0.00,VWS V14.00,2013-04-29 00:27:00,
2013-04-28 19:29:00,85.3,30.7,25.61,South,178,2.7,8.1,14,0.00,,,0.00,VWS V14.00,2013-04-29 00:29:00,
2013-04-28 19:31:00,84.9,30.5,25.61,SSE,164,3.6,8.1,14,0.00,,,0.00,VWS V14.00,2013-04-29 00:31:00,
2013-04-28 19:32:00,84.6,30.2,25.61,SSE,160,2.7,8.1,14,0.00,,,0.00,VWS V14.00,2013-04-29 00:32:00,
2013-04-28 19:34:00,84.4,30.0,25.55,East,85,0.0,3.6,14,0.00,,,0.00,VWS V14.00,2013-04-29 00:34:00,
2013-04-28 19:35:00,84.4,30.0,25.55,East,87,0.0,3.6,14,0.00,,,0.00,VWS V14.00,2013-04-29 00:35:00,
2013-04-28 19:36:00,84.0,29.8,25.55,South,173,5.8,5.8,14,0.00,,,0.00,VWS V14.00,2013-04-29 00:36:00,
2013-04-28 19:38:00,83.7,29.5,25.55,South,183,4.0,5.8,14,0.00,,,0.00,VWS V14.00,2013-04-29 00:38:00,
2013-04-28 19:39:00,83.8,29.6,25.55,South,182,0.0,5.8,14,0.00,,,0.00,VWS V14.00,2013-04-29 00:39:00,
2013-04-28 19:40:00,83.5,29.3,25.55,SSE,158,5.4,5.8,14,0.00,,,0.00,VWS V14.00,2013-04-29 00:40:00,
2013-04-28 19:42:00,82.6,28.6,25.55,South,189,3.6,5.8,14,0.00,,,0.00,VWS V14.00,2013-04-29 00:42:00,
2013-04-28 19:43:00,82.0,29.9,25.55,SSE,150,3.1,6.3,15,0.00,,,0.00,VWS V14.00,2013-04-29 00:43:00,
2013-04-28 19:44:00,81.7,29.6,25.55,South,171,5.4,6.3,15,0.00,,,0.00,VWS V14.00,2013-04-29 00:44:00,
2013-04-28 19:45:00,81.7,29.6,25.55,SW,220,4.0,7.6,15,0.00,,,0.00,VWS V14.00,2013-04-29 00:45:00,
2013-04-28 19:49:00,80.6,28.7,25.55,SSE,166,3.1,6.3,15,0.00,,,0.00,VWS V14.00,2013-04-29 00:49:00,
2013-04-28 19:50:00,80.4,28.6,25.52,South,179,3.1,6.3,15,0.00,,,0.00,VWS V14.00,2013-04-29 00:50:00,
2013-04-28 19:52:00,80.1,28.3,25.52,SSE,151,3.1,6.3,15,0.00,,,0.00,VWS V14.00,2013-04-29 00:52:00,
2013-04-28 19:54:00,79.5,27.9,25.52,South,171,4.9,6.3,15,0.00,,,0.00,VWS V14.00,2013-04-29 00:54:00,
2013-04-28 19:56:00,79.3,27.7,25.52,South,177,3.6,6.3,15,0.00,,,0.00,VWS V14.00,2013-04-29 00:56:00,
2013-04-28 19:57:00,79.3,27.7,25.52,SSE,168,3.1,6.3,15,0.00,,,0.00,VWS V14.00,2013-04-29 00:57:00,
2013-04-28 19:58:00,79.3,27.7,25.52,SSE,165,4.0,6.3,15,0.00,,,0.00,VWS V14.00,2013-04-29 00:58:00,
2013-04-28 19:59:00,79.2,27.6,25.52,South,190,4.0,6.3,15,0.00,,,0.00,VWS V14.00,2013-04-29 00:59:00,
2013-04-28 20:02:00,79.0,27.4,25.52,South,175,3.6,6.3,15,0.00,,,0.00,VWS V14.00,2013-04-29 01:02:00,
2013-04-28 20:03:00,78.8,27.3,25.52,ESE,123,5.4,5.4,15,0.00,,,0.00,VWS V14.00,2013-04-29 01:03:00,
2013-04-28 20:05:00,78.8,27.3,25.49,SSW,204,5.4,5.4,15,0.00,,,0.00,VWS V14.00,2013-04-29 01:05:00,
2013-04-28 20:06:00,79.0,27.4,25.49,South,171,5.4,8.3,15,0.00,,,0.00,VWS V14.00,2013-04-29 01:06:00,
2013-04-28 20:07:00,78.8,27.3,25.49,SSE,152,3.1,8.3,15,0.00,,,0.00,VWS V14.00,2013-04-29 01:07:00,
2013-04-28 20:08:00,78.8,27.3,25.49,SSE,168,3.6,8.3,15,0.00,,,0.00,VWS V14.00,2013-04-29 01:08:00,
2013-04-28 20:09:00,78.8,27.3,25.49,SSW,195,3.6,8.3,15,0.00,,,0.00,VWS V14.00,2013-04-29 01:09:00,
2013-04-28 20:11:00,78.4,28.6,25.49,SSE,166,4.0,8.3,16,0.00,,,0.00,VWS V14.00,2013-04-29 01:11:00,
2013-04-28 20:12:00,78.4,28.6,25.49,South,178,3.6,8.3,16,0.00,,,0.00,VWS V14.00,2013-04-29 01:12:00,
2013-04-28 20:13:00,78.3,28.4,25.49,South,173,2.7,8.3,16,0.00,,,0.00,VWS V14.00,2013-04-29 01:13:00,
2013-04-28 20:14:00,78.1,28.3,25.49,SSW,193,4.0,8.3,16,0.00,,,0.00,VWS V14.00,2013-04-29 01:14:00,
2013-04-28 20:15:00,78.1,28.3,25.49,South,190,3.6,8.3,16,0.00,,,0.00,VWS V14.00,2013-04-29 01:15:00,
2013-04-28 20:16:00,77.9,28.1,25.49,SE,131,4.0,8.3,16,0.00,,,0.00,VWS V14.00,2013-04-29 01:16:00,
2013-04-28 20:17:00,77.9,28.1,25.49,SSE,158,3.1,3.6,16,0.00,,,0.00,VWS V14.00,2013-04-29 01:17:00,
2013-04-28 20:18:00,77.9,28.1,25.49,SSE,158,2.2,3.6,16,0.00,,,0.00,VWS V14.00,2013-04-29 01:18:00,
2013-04-28 20:19:00,77.7,28.0,25.46,South,175,3.6,5.8,16,0.00,,,0.00,VWS V14.00,2013-04-29 01:19:00,
2013-04-28 20:21:00,77.5,27.9,25.46,SSW,194,2.7,5.8,16,0.00,,,0.00,VWS V14.00,2013-04-29 01:21:00,
2013-04-28 20:22:00,77.4,27.7,25.46,SSW,194,2.7,5.8,16,0.00,,,0.00,VWS V14.00,2013-04-29 01:22:00,
2013-04-28 20:25:00,77.4,27.7,25.46,SSE,163,2.7,6.3,16,0.00,,,0.00,VWS V14.00,2013-04-29 01:25:00,
2013-04-28 20:27:00,77.0,27.4,25.46,SSE,157,2.2,6.3,16,0.00,,,0.00,VWS V14.00,2013-04-29 01:27:00,
2013-04-28 20:28:00,76.8,27.3,25.46,SSW,195,2.7,6.3,16,0.00,,,0.00,VWS V14.00,2013-04-29 01:28:00,
2013-04-28 20:30:00,76.5,27.0,25.46,South,170,0.0,6.3,16,0.00,,,0.00,VWS V14.00,2013-04-29 01:30:00,
2013-04-28 20:31:00,76.3,26.8,25.46,South,170,0.0,6.3,16,0.00,,,0.00,VWS V14.00,2013-04-29 01:31:00,
2013-04-28 20:32:00,76.1,26.7,25.46,South,170,0.0,6.3,16,0.00,,,0.00,VWS V14.00,2013-04-29 01:32:00,
2013-04-28 20:33:00,75.9,26.5,25.46,South,170,0.0,0.0,16,0.00,,,0.00,VWS V14.00,2013-04-29 01:33:00,
2013-04-28 20:34:00,75.9,26.5,25.46,South,170,0.0,0.0,16,0.00,,,0.00,VWS V14.00,2013-04-29 01:34:00,
2013-04-28 20:35:00,75.6,26.3,25.43,South,170,2.2,2.2,16,0.00,,,0.00,VWS V14.00,2013-04-29 01:35:00,
2013-04-28 20:38:00,75.2,26.0,25.43,South,170,0.0,3.6,16,0.00,,,0.00,VWS V14.00,2013-04-29 01:38:00,
2013-04-28 20:39:00,75.2,26.0,25.43,South,170,0.0,3.6,16,0.00,,,0.00,VWS V14.00,2013-04-29 01:39:00,
2013-04-28 20:40:00,75.0,25.8,25.43,SSE,163,2.7,3.6,16,0.00,,,0.00,VWS V14.00,2013-04-29 01:40:00,
2013-04-28 20:41:00,74.8,25.7,25.43,SSE,163,0.0,3.6,16,0.00,,,0.00,VWS V14.00,2013-04-29 01:41:00,
2013-04-28 20:44:00,75.0,25.8,25.43,SSE,163,2.7,3.6,16,0.00,,,0.00,VWS V14.00,2013-04-29 01:44:00,
2013-04-28 20:45:00,75.0,25.8,25.43,SSE,163,3.1,3.6,16,0.00,,,0.00,VWS V14.00,2013-04-29 01:45:00,
2013-04-28 20:46:00,75.0,25.8,25.43,SSE,163,2.2,3.6,16,0.00,,,0.00,VWS V14.00,2013-04-29 01:46:00,
2013-04-28 20:49:00,75.0,25.8,25.46,South,180,0.0,3.1,16,0.00,,,0.00,VWS V14.00,2013-04-29 01:49:00,
2013-04-28 20:50:00,74.8,25.7,25.46,South,180,0.0,3.1,16,0.00,,,0.00,VWS V14.00,2013-04-29 01:50:00,
2013-04-28 20:51:00,74.8,25.7,25.46,South,180,0.0,3.1,16,0.00,,,0.00,VWS V14.00,2013-04-29 01:51:00,
2013-04-28 20:52:00,74.7,25.5,25.46,South,180,0.0,3.1,16,0.00,,,0.00,VWS V14.00,2013-04-29 01:52:00,
2013-04-28 20:56:00,74.3,25.2,25.46,South,177,0.0,3.1,16,0.00,,,0.00,VWS V14.00,2013-04-29 01:56:00,
2013-04-28 20:57:00,74.1,25.1,25.46,South,177,0.0,3.1,16,0.00,,,0.00,VWS V14.00,2013-04-29 01:57:00,
2013-04-28 21:01:00,73.9,25.0,25.46,South,172,0.0,4.5,16,0.00,,,0.00,VWS V14.00,2013-04-29 02:01:00,
2013-04-28 21:02:00,73.9,25.0,25.46,South,172,0.0,4.5,16,0.00,,,0.00,VWS V14.00,2013-04-29 02:02:00,
2013-04-28 21:03:00,73.9,25.0,25.46,South,172,0.0,0.0,16,0.00,,,0.00,VWS V14.00,2013-04-29 02:03:00,
2013-04-28 21:07:00,73.8,24.8,25.43,East,92,0.0,4.9,16,0.00,,,0.00,VWS V14.00,2013-04-29 02:07:00,
2013-04-28 21:08:00,73.6,24.7,25.43,East,92,0.0,4.9,16,0.00,,,0.00,VWS V14.00,2013-04-29 02:08:00,
2013-04-28 21:09:00,73.6,24.7,25.43,ESE,102,0.0,4.9,16,0.00,,,0.00,VWS V14.00,2013-04-29 02:09:00,
2013-04-28 21:12:00,73.6,24.7,25.43,ESE,118,3.1,4.9,16,0.00,,,0.00,VWS V14.00,2013-04-29 02:12:00,
2013-04-28 21:13:00,73.8,24.8,25.43,South,173,3.1,4.9,16,0.00,,,0.00,VWS V14.00,2013-04-29 02:13:00,
2013-04-28 21:14:00,73.8,24.8,25.43,SSW,192,0.0,4.9,16,0.00,,,0.00,VWS V14.00,2013-04-29 02:14:00,
2013-04-28 21:17:00,73.6,24.7,25.43,SE,145,0.0,4.9,16,0.00,,,0.00,VWS V14.00,2013-04-29 02:17:00,
2013-04-28 21:18:00,73.4,24.5,25.43,SE,145,0.0,0.0,16,0.00,,,0.00,VWS V14.00,2013-04-29 02:18:00,
2013-04-28 21:19:00,73.2,25.8,25.43,SE,145,0.0,0.0,17,0.00,,,0.00,VWS V14.00,2013-04-29 02:19:00,
2013-04-28 21:20:00,73.2,25.8,25.43,SE,145,0.0,0.0,17,0.00,,,0.00,VWS V14.00,2013-04-29 02:20:00,
2013-04-28 21:22:00,73.0,25.7,25.43,SSE,162,0.0,3.1,17,0.00,,,0.00,VWS V14.00,2013-04-29 02:22:00,
2013-04-28 21:24:00,73.0,25.7,25.43,SSW,200,0.0,3.6,17,0.00,,,0.00,VWS V14.00,2013-04-29 02:24:00,
2013-04-28 21:25:00,72.9,25.5,25.43,South,177,3.6,3.6,17,0.00,,,0.00,VWS V14.00,2013-04-29 02:25:00,
2013-04-28 21:27:00,73.2,25.8,25.43,South,190,4.0,4.0,17,0.00,,,0.00,VWS V14.00,2013-04-29 02:27:00,
2013-04-28 21:30:00,73.4,24.5,25.43,South,190,0.0,4.0,16,0.00,,,0.00,VWS V14.00,2013-04-29 02:30:00,
2013-04-28 21:31:00,73.2,25.8,25.43,South,189,2.2,4.0,17,0.00,,,0.00,VWS V14.00,2013-04-29 02:31:00,
2013-04-28 21:33:00,73.2,25.8,25.43,South,173,2.7,5.4,17,0.00,,,0.00,VWS V14.00,2013-04-29 02:33:00,
2013-04-28 21:35:00,73.4,24.5,25.43,SSE,156,3.1,5.4,16,0.00,,,0.00,VWS V14.00,2013-04-29 02:35:00,
2013-04-28 21:36:00,73.4,24.5,25.43,SSE,156,2.7,5.4,16,0.00,,,0.00,VWS V14.00,2013-04-29 02:36:00,
2013-04-28 21:37:00,73.4,24.5,25.43,South,183,3.1,5.4,16,0.00,,,0.00,VWS V14.00,2013-04-29 02:37:00,
2013-04-28 21:38:00,73.6,24.7,25.43,South,179,4.0,5.4,16,0.00,,,0.00,VWS V14.00,2013-04-29 02:38:00,
2013-04-28 21:41:00,73.4,24.5,25.43,South,178,2.7,5.4,16,0.00,,,0.00,VWS V14.00,2013-04-29 02:41:00,
2013-04-28 21:42:00,73.4,24.5,25.43,South,176,2.7,5.4,16,0.00,,,0.00,VWS V14.00,2013-04-29 02:42:00,
2013-04-28 21:43:00,73.4,24.5,25.43,SSE,150,4.0,5.4,16,0.00,,,0.00,VWS V14.00,2013-04-29 02:43:00,
2013-04-28 21:44:00,73.4,24.5,25.43,South,171,5.8,5.8,16,0.00,,,0.00,VWS V14.00,2013-04-29 02:44:00,
2013-04-28 21:47:00,73.8,24.8,25.43,South,188,4.0,5.8,16,0.00,,,0.00,VWS V14.00,2013-04-29 02:47:00,
2013-04-28 21:48:00,73.9,25.0,25.43,South,172,6.3,6.3,16,0.00,,,0.00,VWS V14.00,2013-04-29 02:48:00,
2013-04-28 21:49:00,73.8,24.8,25.43,SSE,166,4.5,6.3,16,0.00,,,0.00,VWS V14.00,2013-04-29 02:49:00,
2013-04-28 21:50:00,73.8,24.8,25.46,South,186,4.0,6.3,16,0.00,,,0.00,VWS V14.00,2013-04-29 02:50:00,
2013-04-28 21:52:00,73.8,24.8,25.46,SSE,165,6.3,6.3,16,0.00,,,0.00,VWS V14.00,2013-04-29 02:52:00,
2013-04-28 21:54:00,73.9,25.0,25.46,South,181,4.0,6.3,16,0.00,,,0.00,VWS V14.00,2013-04-29 02:54:00,
2013-04-28 21:56:00,73.8,24.8,25.46,South,181,5.8,6.3,16,0.00,,,0.00,VWS V14.00,2013-04-29 02:56:00,
2013-04-28 21:58:00,73.6,24.7,25.46,SSW,192,4.0,6.3,16,0.00,,,0.00,VWS V14.00,2013-04-29 02:58:00,
2013-04-28 21:59:00,73.8,24.8,25.46,South,182,3.1,6.3,16,0.00,,,0.00,VWS V14.00,2013-04-29 02:59:00,
2013-04-28 22:03:00,73.9,25.0,25.46,SSW,193,4.9,6.3,16,0.00,,,0.00,VWS V14.00,2013-04-29 03:03:00,
2013-04-28 22:05:00,73.8,24.8,25.46,SSE,166,4.5,6.3,16,0.00,,,0.00,VWS V14.00,2013-04-29 03:05:00,
2013-04-28 22:08:00,73.8,24.8,25.46,SSW,199,4.5,10.1,16,0.00,,,0.00,VWS V14.00,2013-04-29 03:08:00,
2013-04-28 22:09:00,73.8,24.8,25.46,SSW,196,3.1,10.1,16,0.00,,,0.00,VWS V14.00,2013-04-29 03:09:00,
2013-04-28 22:10:00,73.8,24.8,25.46,SSW,192,5.8,10.1,16,0.00,,,0.00,VWS V14.00,2013-04-29 03:10:00,
2013-04-28 22:11:00,73.6,24.7,25.46,South,177,3.1,10.1,16,0.00,,,0.00,VWS V14.00,2013-04-29 03:11:00,
2013-04-28 22:12:00,73.6,24.7,25.46,SSW,193,4.9,10.1,16,0.00,,,0.00,VWS V14.00,2013-04-29 03:12:00,
2013-04-28 22:14:00,73.4,24.5,25.46,South,176,2.7,10.1,16,0.00,,,0.00,VWS V14.00,2013-04-29 03:14:00,
2013-04-28 22:15:00,73.6,24.7,25.46,South,177,3.1,10.1,16,0.00,,,0.00,VWS V14.00,2013-04-29 03:15:00,
2013-04-28 22:16:00,73.4,24.5,25.46,South,178,5.8,10.1,16,0.00,,,0.00,VWS V14.00,2013-04-29 03:16:00,
2013-04-28 22:17:00,73.4,24.5,25.46,South,184,3.1,4.0,16,0.00,,,0.00,VWS V14.00,2013-04-29 03:17:00,
2013-04-28 22:20:00,73.2,25.8,25.46,SSW,196,3.1,4.9,17,0.00,,,0.00,VWS V14.00,2013-04-29 03:20:00,
2013-04-28 22:21:00,73.0,25.7,25.46,South,176,6.3,6.3,17,0.00,,,0.00,VWS V14.00,2013-04-29 03:21:00,
2013-04-28 22:22:00,73.0,25.7,25.46,South,181,2.7,6.3,17,0.00,,,0.00,VWS V14.00,2013-04-29 03:22:00,
2013-04-28 22:23:00,72.9,25.5,25.46,South,181,4.0,6.3,17,0.00,,,0.00,VWS V14.00,2013-04-29 03:23:00,
2013-04-28 22:26:00,72.9,25.5,25.46,SSW,204,6.3,6.3,17,0.00,,,0.00,VWS V14.00,2013-04-29 03:26:00,
2013-04-28 22:27:00,73.4,24.5,25.46,SSW,197,5.8,6.3,16,0.00,,,0.00,VWS V14.00,2013-04-29 03:27:00,
2013-04-28 22:28:00,73.2,25.8,25.46,South,176,3.6,6.3,17,0.00,,,0.00,VWS V14.00,2013-04-29 03:28:00,
2013-04-28 22:29:00,73.0,25.7,25.46,SSW,192,5.4,6.3,17,0.00,,,0.00,VWS V14.00,2013-04-29 03:29:00,
2013-04-28 22:30:00,73.2,25.8,25.46,South,188,3.1,6.3,17,0.00,,,0.00,VWS V14.00,2013-04-29 03:30:00,
2013-04-28 22:32:00,72.9,25.5,25.46,South,190,2.7,6.3,17,0.00,,,0.00,VWS V14.00,2013-04-29 03:32:00,
2013-04-28 22:34:00,73.2,25.8,25.46,SSW,196,5.8,6.3,17,0.00,,,0.00,VWS V14.00,2013-04-29 03:34:00,
2013-04-28 22:35:00,73.0,25.7,25.46,South,189,3.6,6.3,17,0.00,,,0.00,VWS V14.00,2013-04-29 03:35:00,
2013-04-28 22:37:00,73.0,25.7,25.46,South,185,4.0,6.3,17,0.00,,,0.00,VWS V14.00,2013-04-29 03:37:00,
2013-04-28 22:38:00,72.9,25.5,25.46,SSW,200,5.4,6.3,17,0.00,,,0.00,VWS V14.00,2013-04-29 03:38:00,
2013-04-28 22:39:00,72.9,25.5,25.46,SSW,192,3.1,6.3,17,0.00,,,0.00,VWS V14.00,2013-04-29 03:39:00,
2013-04-28 22:43:00,72.7,25.4,25.46,South,185,2.7,6.3,17,0.00,,,0.00,VWS V14.00,2013-04-29 03:43:00,
2013-04-28 22:44:00,72.5,25.2,25.46,South,185,3.1,6.3,17,0.00,,,0.00,VWS V14.00,2013-04-29 03:44:00,
2013-04-28 22:45:00,72.3,25.1,25.46,South,185,2.7,6.3,17,0.00,,,0.00,VWS V14.00,2013-04-29 03:45:00,
2013-04-28 22:46:00,72.3,25.1,25.46,South,186,5.8,6.3,17,0.00,,,0.00,VWS V14.00,2013-04-29 03:46:00,
2013-04-28 22:48:00,72.5,25.2,25.46,South,189,5.4,5.4,17,0.00,,,0.00,VWS V14.00,2013-04-29 03:48:00,
2013-04-28 22:50:00,72.3,25.1,25.46,South,184,3.6,5.4,17,0.00,,,0.00,VWS V14.00,2013-04-29 03:50:00,
2013-04-28 22:51:00,72.1,25.0,25.46,South,180,2.7,5.4,17,0.00,,,0.00,VWS V14.00,2013-04-29 03:51:00,
2013-04-28 22:52:00,72.3,25.1,25.46,South,180,4.0,5.4,17,0.00,,,0.00,VWS V14.00,2013-04-29 03:52:00,
2013-04-28 22:53:00,72.3,25.1,25.46,South,173,2.7,5.4,17,0.00,,,0.00,VWS V14.00,2013-04-29 03:53:00,
2013-04-28 22:55:00,72.1,25.0,25.46,South,173,2.7,5.4,17,0.00,,,0.00,VWS V14.00,2013-04-29 03:55:00,
2013-04-28 22:57:00,72.3,25.1,25.46,SSW,193,5.4,5.4,17,0.00,,,0.00,VWS V14.00,2013-04-29 03:57:00,
2013-04-28 22:58:00,72.1,25.0,25.46,SSW,197,4.0,6.3,17,0.00,,,0.00,VWS V14.00,2013-04-29 03:58:00,
2013-04-28 23:00:00,72.0,24.8,25.46,SSW,200,2.7,6.3,17,0.00,,,0.00,VWS V14.00,2013-04-29 04:00:00,
2013-04-28 23:01:00,72.0,24.8,25.46,South,179,4.0,6.3,17,0.00,,,0.00,VWS V14.00,2013-04-29 04:01:00,
2013-04-28 23:02:00,71.8,24.7,25.46,South,179,4.0,6.3,17,0.00,,,0.00,VWS V14.00,2013-04-29 04:02:00,
2013-04-28 23:06:00,71.8,24.7,25.46,South,174,3.1,6.3,17,0.00,,,0.00,VWS V14.00,2013-04-29 04:06:00,
2013-04-28 23:08:00,72.0,24.8,25.46,South,182,3.6,6.3,17,0.00,,,0.00,VWS V14.00,2013-04-29 04:08:00,
2013-04-28 23:11:00,72.0,24.8,25.46,South,174,3.6,7.6,17,0.00,,,0.00,VWS V14.00,2013-04-29 04:11:00,
2013-04-28 23:12:00,71.8,24.7,25.46,South,185,4.9,7.6,17,0.00,,,0.00,VWS V14.00,2013-04-29 04:12:00,
2013-04-28 23:13:00,71.8,24.7,25.46,South,178,3.1,7.6,17,0.00,,,0.00,VWS V14.00,2013-04-29 04:13:00,
2013-04-28 23:15:00,71.6,24.5,25.46,South,184,3.1,7.6,17,0.00,,,0.00,VWS V14.00,2013-04-29 04:15:00,
2013-04-28 23:16:00,71.4,24.4,25.46,South,184,2.2,7.6,17,0.00,,,0.00,VWS V14.00,2013-04-29 04:16:00,
2013-04-28 23:17:00,71.4,24.4,25.46,South,184,2.7,7.6,17,0.00,,,0.00,VWS V14.00,2013-04-29 04:17:00,
2013-04-28 23:18:00,71.4,24.4,25.46,South,185,4.0,4.9,17,0.00,,,0.00,VWS V14.00,2013-04-29 04:18:00,
2013-04-28 23:21:00,71.2,24.2,25.46,South,187,4.0,5.4,17,0.00,,,0.00,VWS V14.00,2013-04-29 04:21:00,
2013-04-28 23:22:00,71.2,24.2,25.46,SW,218,3.1,5.4,17,0.00,,,0.00,VWS V14.00,2013-04-29 04:22:00,
2013-04-28 23:23:00,71.2,24.2,25.46,South,180,5.4,6.3,17,0.00,,,0.00,VWS V14.00,2013-04-29 04:23:00,
2013-04-28 23:27:00,71.1,24.1,25.46,SSW,199,4.9,6.3,17,0.00,,,0.00,VWS V14.00,2013-04-29 04:27:00,
2013-04-28 23:28:00,71.1,24.1,25.46,South,181,4.9,6.3,17,0.00,,,0.00,VWS V14.00,2013-04-29 04:28:00,
2013-04-28 23:29:00,71.1,24.1,25.46,SSW,196,6.3,8.3,17,0.00,,,0.00,VWS V14.00,2013-04-29 04:29:00,
2013-04-28 23:30:00,71.1,24.1,25.46,South,169,5.4,8.3,17,0.00,,,0.00,VWS V14.00,2013-04-29 04:30:00,
2013-04-28 23:31:00,71.1,24.1,25.46,South,182,4.0,8.3,17,0.00,,,0.00,VWS V14.00,2013-04-29 04:31:00,
2013-04-28 23:32:00,71.1,24.1,25.46,South,183,2.7,8.3,17,0.00,,,0.00,VWS V14.00,2013-04-29 04:32:00,
2013-04-28 23:34:00,71.1,24.1,25.46,SSW,193,4.0,7.2,17,0.00,,,0.00,VWS V14.00,2013-04-29 04:34:00,
2013-04-28 23:36:00,71.1,24.1,25.46,South,191,5.8,10.5,17,0.00,,,0.00,VWS V14.00,2013-04-29 04:36:00,
2013-04-28 23:37:00,71.1,24.1,25.46,South,181,8.1,10.5,17,0.00,,,0.00,VWS V14.00,2013-04-29 04:37:00,
2013-04-28 23:39:00,71.1,24.1,25.46,South,186,5.4,10.5,17,0.00,,,0.00,VWS V14.00,2013-04-29 04:39:00,
2013-04-28 23:42:00,71.1,24.1,25.46,South,178,3.6,10.5,17,0.00,,,0.00,VWS V14.00,2013-04-29 04:42:00,
2013-04-28 23:46:00,71.2,24.2,25.46,South,183,3.6,10.5,17,0.00,,,0.00,VWS V14.00,2013-04-29 04:46:00,
2013-04-28 23:47:00,71.2,24.2,25.46,SSW,202,5.4,10.5,17,0.00,,,0.00,VWS V14.00,2013-04-29 04:47:00,
2013-04-28 23:48:00,71.2,24.2,25.46,South,169,5.8,6.3,17,0.00,,,0.00,VWS V14.00,2013-04-29 04:48:00,
2013-04-28 23:52:00,71.2,24.2,25.46,SSW,200,3.6,8.1,17,0.00,,,0.00,VWS V14.00,2013-04-29 04:52:00,
2013-04-28 23:53:00,71.2,24.2,25.46,SSW,194,5.4,8.1,17,0.00,,,0.00,VWS V14.00,2013-04-29 04:53:00,
2013-04-28 23:54:00,71.2,24.2,25.46,SSW,201,5.4,8.1,17,0.00,,,0.00,VWS V14.00,2013-04-29 04:54:00,
2013-04-28 23:57:00,71.2,24.2,25.46,SSW,202,6.3,8.1,17,0.00,,,0.00,VWS V14.00,2013-04-29 04:57:00,
2013-04-28 23:58:00,71.2,24.2,25.46,South,182,3.6,8.1,17,0.00,,,0.00,VWS V14.00,2013-04-29 04:58:00,
2013-04-28 23:59:00,71.2,24.2,25.46,SW,221,4.0,8.1,17,0.00,,,0.00,VWS V14.00,2013-04-29 04:59:00,